[{"header": {"dx": 0.06612293990616946, "dy": 0.0552356325346848, "nx": 98, "ny": 59, "la1": 35.046912555036876, "la2": 31.78801023549047, "lo1": -121.43107172385933, "lo2": -114.95102361305473, "refTime": "2026040807", "parameterCategory": 1, "parameterNumber": 2}, "data": [8.2, 8.22, 7.96, 7.96, 7.6, 7.33, 7.32, 6.98, 6.35, 5.72, 4.47, 2.6, 1.24, 0.0, 0.0, -1.16, -3.48, -4.43, -5.24, -5.24, -5.58, -4.98, -4.0, -3.45, -2.53, -2.53, -1.61, -0.61, 0.0, 0.0, 0.54, 1.24, 2.12, 2.24, 2.68, 3.58, 4.02, 4.02, 3.58, 2.68, 2.24, 2.24, 3.2, 4.89, 7.64, 9.92, 12.51, 13.14, 13.49, 13.1, 8.3, 1.2, -0.0, -0.0, 1.47, 2.98, 4.74, 5.46, 5.69, 6.0, 5.86, 4.93, 4.24, 3.2, 2.5, 3.83, 5.05, 6.0, 7.47, 9.83, 10.75, 9.54, 7.45, 6.07, 5.64, 6.54, 8.4, 9.93, 11.96, 10.26, 4.02, 0.89, -1.79, -2.68, -2.6, -2.12, -0.6, -0.0, 2.24, 4.43, 7.71, 8.14, 8.24, 8.63, 8.8, 8.55, 8.4, 7.45, 8.2, 8.2, 8.22, 8.23, 7.96, 7.33, 7.61, 7.61, 6.98, 6.06, 5.1, 2.51, 1.9, 1.7, 0.89, 0.63, -1.2, -3.48, -5.24, -5.09, -6.52, -6.7, -4.6, -3.74, -3.07, -2.5, -1.88, -1.88, -1.16, -0.53, 0.0, 0.0, 0.63, 1.34, 2.17, 3.13, 4.02, 4.47, 4.43, 3.97, 3.07, 3.2, 4.89, 6.88, 8.37, 11.06, 12.78, 12.84, 12.87, 10.55, 3.51, -0.0, -0.0, 0.7, 1.94, 3.22, 4.74, 5.43, 6.07, 6.54, 6.54, 5.86, 4.8, 3.84, 3.49, 4.46, 5.43, 6.0, 6.94, 9.33, 10.52, 9.83, 8.19, 6.66, 5.31, 5.86, 8.4, 9.93, 11.96, 10.26, 4.02, 0.89, -1.79, -2.68, -2.6, -2.12, -0.6, -0.0, 2.24, 4.43, 7.71, 8.14, 8.24, 8.63, 8.8, 8.55, 8.4, 7.45, 8.49, 8.2, 8.2, 8.22, 8.23, 7.96, 7.6, 7.61, 7.32, 6.35, 5.1, 4.1, 2.23, 2.15, 1.7, 1.79, 0.95, -2.07, -4.43, -6.18, -5.06, -7.28, -7.28, -5.95, -3.22, -2.91, -2.4, -2.15, -1.88, -1.84, -1.61, -1.2, -1.26, 0.45, 0.89, 2.24, 3.58, 4.47, 5.31, 4.93, 4.73, 6.32, 7.63, 9.39, 10.21, 10.98, 11.83, 11.7, 9.85, 4.09, 1.2, 0.73, 0.73, 1.41, 1.94, 2.88, 3.64, 5.43, 6.44, 6.94, 6.94, 6.28, 4.84, 4.46, 4.46, 5.46, 5.72, 6.7, 7.28, 8.63, 9.74, 10.52, 10.02, 7.15, 4.02, 4.92, 8.49, 11.84, 12.44, 11.18, 7.15, 3.13, 0.0, -1.79, -2.68, -1.86, -0.6, 0.45, 2.63, 5.86, 8.8, 8.88, 8.32, 7.95, 7.69, 7.28, 6.54, 6.11, 8.59, 8.86, 8.58, 8.2, 8.23, 8.24, 7.96, 7.61, 7.61, 6.98, 5.72, 4.22, 2.07, 1.88, 1.86, 1.86, 2.4, 0.65, -2.73, -5.43, -4.46, -5.24, -6.52, -7.06, -6.32, -3.74, -3.07, -2.4, -1.9, -1.88, -2.07, -3.07, -3.49, -2.21, 0.0, 2.12, 3.32, 5.09, 7.03, 7.69, 8.53, 9.22, 9.28, 8.61, 8.72, 9.4, 9.23, 7.31, 4.0, 2.8, 2.48, 2.0, 1.41, 1.47, 1.41, 3.11, 4.01, 5.09, 6.64, 7.47, 7.28, 6.0, 4.46, 3.72, 4.65, 5.72, 6.44, 6.98, 7.61, 9.19, 10.48, 11.62, 11.4, 7.57, 3.53, 3.45, 6.54, 11.52, 13.86, 11.6, 6.22, 4.02, 1.79, -1.34, -2.68, -1.6, 0.63, 2.24, 3.6, 8.05, 9.3, 8.67, 7.33, 7.02, 5.72, 4.09, 4.52, 5.64, 8.59, 8.59, 8.58, 8.58, 8.22, 7.96, 8.24, 7.96, 7.33, 6.98, 5.72, 4.08, 1.84, 1.88, 1.61, 1.88, 2.23, 2.53, -0.59, -5.09, -6.52, -5.37, -4.98, -6.99, -6.64, -7.4, -4.15, -2.8, -1.49, -1.2, -1.33, -3.11, -5.38, -4.5, 0.0, 2.12, 3.0, 6.11, 8.16, 9.31, 9.22, 8.37, 6.58, 6.07, 6.28, 6.79, 6.98, 5.81, 4.41, 4.46, 4.46, 3.07, 2.0, 1.47, 2.29, 3.72, 4.46, 5.46, 7.03, 7.98, 7.71, 5.43, 4.46, 4.36, 5.69, 6.7, 6.7, 6.08, 6.68, 8.3, 10.8, 13.07, 12.3, 10.25, 4.47, 2.51, 3.64, 8.24, 11.86, 11.54, 4.43, 3.13, 3.13, 0.45, -2.6, -1.26, 1.58, 4.0, 7.07, 8.68, 7.95, 7.32, 6.7, 4.11, 2.23, 3.07, 4.3, 6.55, 8.59, 8.59, 8.86, 8.58, 8.58, 8.23, 8.23, 8.24, 7.95, 6.98, 5.34, 3.22, 1.2, 1.9, 1.9, 1.88, 1.84, 2.51, 0.59, -3.38, -7.9, -7.97, -8.23, -7.76, -6.6, -6.18, -6.18, -2.76, -1.49, 0.0, 0.0, 0.0, -1.47, -3.07, -1.41, 0.73, 2.25, 5.99, 9.22, 8.46, 6.09, 3.99, 3.14, 4.47, 8.05, 9.39, 9.39, 8.49, 7.12, 5.64, 4.24, 3.45, 2.07, 1.41, 2.3, 3.48, 4.46, 4.84, 6.94, 8.82, 7.71, 4.46, 3.72, 5.06, 6.44, 7.28, 6.64, 5.09, 4.46, 7.6, 10.32, 11.66, 11.95, 11.62, 10.1, 4.47, 2.51, 2.98, 5.34, 9.36, 3.58, 2.91, 4.0, 3.07, 0.0, 0.0, 2.11, 5.94, 7.64, 6.95, 6.32, 7.02, 5.43, 1.88, 1.24, 3.07, 4.88, 5.81, 8.87, 8.59, 8.59, 8.86, 8.2, 8.22, 8.59, 8.23, 7.96, 6.98, 4.45, 2.82, 1.49, 2.17, 3.82, 2.23, 1.88, 3.07, 3.43, 0.0, -5.64, -9.1, -9.31, -9.36, -8.32, -6.71, -6.45, -4.36, -3.3, -1.6, 0.0, 0.57, 1.2, 0.0, 0.0, 0.0, 0.78, 4.28, 7.68, 5.28, 3.17, 1.1, 2.12, 5.37, 8.99, 9.6, 10.49, 9.81, 7.6, 8.05, 6.71, 3.32, 2.53, 2.07, 2.51, 3.49, 4.09, 4.46, 6.28, 8.19, 6.79, 4.46, 4.09, 5.43, 5.6, 6.54, 6.54, 4.73, 3.97, 6.71, 9.39, 9.83, 9.81, 11.08, 11.52, 10.18, 4.47, 1.86, 2.68, 5.81, 4.43, 3.49, 5.06, 5.37, 3.55, 2.83, 3.85, 5.09, 6.05, 5.38, 5.46, 4.94, 1.88, 0.63, 1.7, 4.02, 4.87, 4.52, 8.87, 8.87, 8.87, 8.22, 8.22, 8.22, 8.59, 8.59, 8.24, 6.71, 4.03, 2.14, 1.4, 2.5, 4.98, 2.8, 3.07, 4.46, 6.32, 5.43, 2.5, -0.59, -5.38, -9.39, -7.82, -6.64, -5.55, -5.55, -5.43, -5.2, -1.98, 0.0, 0.79, 2.16, 2.17, 0.7, 0.0, 2.25, 5.21, 5.46, 3.2, 2.17, 3.18, 4.38, 6.42, 7.14, 7.32, 8.91, 8.82, 9.16, 4.87, 3.07, 2.53, 2.79, 3.48, 3.79, 4.46, 5.43, 6.54, 7.21, 6.79, 4.93, 3.82, 4.41, 3.32, 3.74, 6.55, 5.81, 3.97, 5.59, 7.89, 8.46, 9.7, 10.96, 11.4, 10.26, 8.36, 4.93, 5.16, 9.36, 11.18, 6.59, 5.31, 5.52, 5.46, 4.8, 4.15, 3.76, 3.95, 4.71, 2.12, 0.0, 0.45, 0.8, 2.49, 3.6, 3.72, 4.09, 8.59, 8.59, 8.23, 8.23, 8.23, 8.23, 8.59, 8.59, 8.23, 6.71, 4.44, 2.89, 1.01, 2.26, 3.22, 3.49, 3.84, 4.81, 5.43, 4.24, 3.51, 3.51, 2.86, -1.41, -6.33, -5.43, -4.4, -6.45, -8.32, -5.21, -2.1, -1.05, 0.0, 2.1, 2.28, 1.54, 1.02, 1.07, 2.04, 4.2, 3.11, 3.21, 4.43, 4.28, 3.34, 2.95, 4.15, 6.17, 8.06, 8.24, 6.99, 3.07, 2.51, 2.98, 4.01, 4.74, 5.72, 7.03, 7.47, 7.71, 7.28, 6.07, 4.47, 2.68, 1.86, 2.8, 6.66, 6.71, 3.51, 2.8, 5.31, 7.94, 10.49, 11.09, 10.37, 8.01, 6.26, 7.45, 10.16, 11.54, 12.87, 7.76, 4.07, 4.61, 5.59, 5.52, 4.73, 4.28, 2.66, 0.59, -0.61, -1.2, -0.57, -0.0, 1.88, 2.84, 3.72, 3.72, 8.59, 8.59, 8.23, 8.23, 8.22, 8.23, 8.23, 8.59, 8.23, 6.96, 5.29, 4.63, 3.94, 2.3, 1.69, 3.06, 4.0, 4.2, 4.21, 2.12, 0.88, 1.66, 3.16, 1.49, -2.4, -6.11, -5.15, -7.59, -8.61, -4.32, -1.04, 0.0, 0.0, 0.0, 0.0, 1.01, 3.0, 2.8, 1.95, 3.14, 3.02, 2.95, 1.94, 0.57, 0.0, 0.61, 0.74, 1.52, 3.64, 3.14, 2.17, 1.58, 2.51, 3.72, 5.09, 6.08, 7.03, 7.89, 8.19, 8.36, 8.01, 7.12, 7.15, 2.6, 1.58, 2.91, 6.22, 6.67, 3.58, 2.6, 4.41, 8.71, 11.28, 10.84, 10.18, 8.46, 6.55, 6.98, 9.28, 11.6, 12.52, 12.95, 4.77, 2.73, 3.38, 3.78, 4.07, 4.11, 2.84, 0.0, -0.6, -0.63, -0.99, -1.24, 0.54, 3.07, 4.11, 3.6, 8.59, 8.59, 8.24, 8.59, 8.86, 8.59, 8.59, 8.59, 7.96, 6.94, 6.31, 5.92, 5.69, 4.38, 2.39, 2.25, 3.32, 3.47, 3.47, 2.28, 0.74, 0.0, 0.8, 1.94, 0.0, -4.87, -6.69, -5.21, -6.21, -3.14, 0.0, 0.81, 0.0, -1.58, -2.34, 0.0, 3.99, 5.46, 1.94, 1.27, 0.0, -0.61, -1.26, -1.98, -1.58, -2.24, -2.68, -2.68, -2.68, -2.24, -0.89, 0.6, 2.5, 3.49, 5.46, 6.64, 7.98, 8.82, 8.46, 8.49, 8.05, 6.71, 3.51, 1.86, 1.58, 3.07, 5.86, 6.79, 4.87, 3.97, 6.79, 9.89, 11.28, 10.52, 9.74, 9.74, 8.24, 6.4, 8.0, 10.43, 11.58, 12.44, 11.62, 4.3, 2.21, 2.53, 3.49, 4.09, 3.6, 3.07, 1.61, 0.6, -0.6, -1.24, 0.4, 2.63, 3.53, 2.91, 8.59, 8.87, 8.58, 8.59, 8.86, 8.58, 8.86, 8.59, 7.96, 7.59, 6.94, 6.96, 6.7, 6.98, 6.06, 4.69, 3.8, 3.89, 3.99, 3.34, 1.67, 0.0, 0.0, 1.66, 1.49, -0.57, -1.88, -2.44, -1.84, -0.96, 0.0, 0.63, 0.0, -1.94, -2.28, 0.0, 2.76, 2.44, 0.57, -1.34, -2.6, -2.4, -1.4, -1.24, -2.12, -3.07, -3.04, -2.6, -2.21, -2.24, -1.26, 0.0, 1.34, 3.07, 4.24, 6.11, 8.36, 8.36, 7.6, 6.22, 4.92, 3.58, 1.86, -0.0, 0.95, 2.5, 5.05, 6.94, 6.07, 5.81, 7.56, 9.68, 10.1, 9.11, 9.11, 10.45, 9.33, 7.6, 8.18, 9.78, 9.84, 9.33, 9.81, 8.91, 4.02, 3.07, 3.6, 4.09, 4.09, 4.66, 4.73, 2.21, -0.0, -0.0, 1.2, 2.24, 2.24, 1.7, 8.59, 8.87, 8.58, 8.59, 8.86, 8.58, 8.86, 8.22, 7.96, 7.85, 7.85, 7.59, 7.6, 7.95, 8.5, 7.81, 6.52, 5.1, 4.44, 4.4, 3.83, 2.61, 1.76, 1.98, 2.98, 2.49, 0.89, -0.99, -1.61, -2.24, -2.12, -1.6, -0.65, 0.45, 0.0, 0.0, 0.54, 0.45, -0.63, -1.79, -2.24, -1.86, -0.57, 0.0, -1.26, -2.15, -2.41, -2.15, -2.21, -1.74, -1.8, -0.66, 0.0, 1.84, 2.86, 4.15, 4.92, 6.64, 3.98, 2.24, 0.45, -0.0, -0.0, -0.89, 0.45, 0.63, 2.5, 3.14, 3.45, 3.51, 3.58, 4.41, 6.07, 6.36, 7.89, 10.01, 10.01, 9.2, 9.14, 8.58, 6.96, 6.7, 9.34, 10.52, 8.49, 7.15, 6.07, 4.12, 4.12, 5.36, 5.95, 3.6, 2.17, 1.86, 2.17, 2.24, 1.2, 1.2, 8.87, 8.59, 8.58, 8.59, 8.86, 8.86, 8.86, 8.22, 7.96, 7.96, 7.96, 7.96, 8.23, 7.96, 9.17, 9.66, 9.21, 7.9, 6.23, 6.01, 6.01, 6.15, 4.84, 4.29, 4.17, 3.64, 1.79, -0.63, -2.79, -3.43, -3.35, -2.5, -1.58, -0.0, 0.54, 1.2, 1.24, 0.57, 0.0, -1.26, -1.84, -1.35, 0.0, 0.0, 0.0, -1.05, -1.45, -2.17, -2.06, -2.09, -1.96, 0.0, 0.0, 1.09, 2.17, 2.12, 2.15, 3.13, 3.07, -0.0, -2.24, -2.12, -1.79, -2.12, -1.9, -0.95, 0.0, 0.57, -0.0, -0.0, -0.0, -0.0, 1.26, 2.68, 4.66, 8.14, 8.14, 7.6, 7.28, 6.64, 4.81, 6.39, 9.21, 10.41, 8.97, 9.11, 8.19, 4.4, 3.14, 3.72, 6.13, 4.88, 4.02, 3.53, 3.53, 2.63, 1.2, 1.2, 8.87, 8.59, 8.58, 8.87, 8.59, 8.59, 8.59, 8.59, 7.96, 7.96, 8.22, 8.59, 8.59, 8.87, 9.21, 10.09, 10.01, 9.21, 8.18, 7.9, 8.0, 8.82, 8.68, 7.76, 6.41, 4.94, 2.58, 0.0, -1.7, -2.15, -2.4, -2.91, -1.6, -0.95, -0.0, 1.9, 1.6, 1.2, 0.45, -1.2, -1.27, 0.0, 0.0, -0.85, -1.34, 0.45, 0.0, 0.0, -1.03, -1.95, -2.04, 0.0, 0.99, 0.0, 0.0, 0.0, 0.79, 2.5, 3.13, 0.0, -2.24, -2.24, -2.24, -2.23, -1.88, -1.49, 0.0, 0.0, -0.0, -0.7, -1.35, -0.57, -0.0, 0.99, 2.24, 3.51, 3.53, 3.97, 3.82, 4.0, 3.84, 5.43, 7.59, 9.05, 8.11, 8.3, 7.89, 4.43, 3.13, 3.58, 5.36, 7.15, 5.36, 4.02, 4.41, 2.63, 1.79, 1.79, 9.21, 8.59, 8.58, 8.59, 8.59, 8.59, 8.59, 8.87, 8.59, 8.59, 8.59, 8.86, 8.86, 9.21, 9.5, 10.12, 10.36, 10.23, 9.86, 9.21, 9.21, 9.76, 10.16, 10.4, 9.2, 7.48, 4.55, 2.49, 1.79, 1.2, -0.0, -0.6, -1.26, -0.0, -0.0, 1.24, 1.2, 0.0, -1.34, -1.9, -1.84, -1.2, -1.34, -1.6, -2.53, -1.4, -0.0, -0.0, 0.45, -0.57, -0.87, 0.0, 0.0, 0.0, 0.0, 0.0, 0.65, 1.49, 1.2, 0.0, -0.63, -0.89, -0.89, -0.45, 0.0, 0.0, 0.0, 0.0, -0.0, -2.07, -2.48, -0.61, 0.65, 1.24, 0.95, 1.26, 1.88, 2.5, 2.17, 1.7, 1.9, 2.53, 5.09, 7.03, 7.47, 4.66, 4.52, 3.58, 3.32, 3.82, 6.22, 5.78, 4.02, 4.88, 6.22, 4.02, 2.68, 2.68, 9.21, 9.21, 8.87, 8.59, 8.87, 8.59, 8.59, 8.87, 8.87, 8.59, 8.86, 8.86, 8.86, 9.21, 9.84, 9.82, 10.4, 10.65, 10.23, 10.15, 10.04, 10.3, 10.83, 10.5, 10.18, 9.23, 8.03, 7.15, 6.71, 5.81, 4.47, 2.68, 0.63, -0.0, -0.0, -0.0, -1.26, -1.79, -1.79, -2.12, -2.23, -3.07, -2.68, -1.79, -0.95, -1.0, -1.58, -0.0, -0.0, -0.0, -0.0, 0.45, -0.0, -0.0, -0.0, 0.0, 0.45, 0.0, 0.0, -0.45, 0.45, -0.0, -0.0, -0.0, 0.45, 0.89, 0.63, 0.0, -0.95, -2.86, -2.8, -0.89, 0.0, 0.45, 0.45, -0.0, 1.27, 2.0, 1.88, 0.4, 0.45, 1.86, 3.07, 5.2, 6.28, 3.53, 2.68, 3.07, 3.97, 7.15, 8.91, 6.26, 4.02, 4.47, 6.71, 5.36, 3.53, 3.53, 9.21, 9.21, 8.59, 8.59, 8.59, 8.59, 8.59, 8.87, 8.87, 9.21, 9.21, 8.86, 9.21, 9.5, 9.84, 10.12, 10.4, 10.94, 11.16, 10.7, 10.83, 10.83, 10.68, 10.18, 10.22, 10.28, 9.83, 9.39, 8.94, 8.47, 7.06, 5.24, 2.63, 0.6, -0.59, -1.16, -2.5, -2.68, -2.12, -2.12, -2.24, -3.13, -3.04, -2.12, -0.89, -1.34, 1.34, -0.0, -0.0, -0.0, -0.0, -0.0, -0.0, -0.0, -0.0, 0.89, 0.89, -0.0, -0.0, 0.89, 0.89, 1.34, -0.0, -0.0, -1.6, -0.6, 0.45, 0.0, -0.95, -2.68, -2.6, -1.24, 0.0, -0.57, -1.79, -0.71, 0.61, 2.51, 2.23, 1.24, 0.63, 1.79, 3.32, 4.66, 3.6, 3.07, 3.14, 3.58, 5.32, 7.71, 8.82, 7.15, 4.47, 4.77, 6.11, 5.77, 4.43, 4.43, 9.5, 9.21, 8.59, 8.58, 8.59, 8.59, 8.59, 8.87, 9.5, 9.21, 9.21, 9.21, 9.21, 9.5, 9.21, 9.4, 9.8, 10.4, 10.59, 11.08, 12.11, 12.33, 10.91, 8.55, 7.71, 9.77, 8.33, 7.92, 7.71, 7.58, 6.6, 5.08, 2.79, 0.89, -0.65, -2.22, -3.09, -3.09, -3.07, -2.6, -2.24, -2.17, -2.24, -2.24, -0.89, 0.45, 0.0, 0.45, -0.0, -1.0, -0.0, -0.0, -0.0, -0.0, -0.0, -0.0, 0.89, 0.89, 0.89, 0.89, 1.34, 0.89, -0.0, -1.24, -1.9, -1.26, 0.0, 1.0, 1.24, 0.6, 0.8, 2.91, 3.53, 2.63, 0.32, 0.0, 0.89, 2.24, 3.07, 2.4, 2.24, 2.91, 3.6, 3.43, 3.48, 3.64, 4.71, 6.28, 7.69, 7.28, 6.36, 8.01, 7.48, 5.44, 5.02, 5.2, 4.88, 4.88, 9.8, 9.5, 9.19, 8.58, 8.59, 8.59, 8.59, 8.87, 9.5, 9.21, 9.5, 9.21, 9.5, 9.5, 9.21, 9.19, 9.8, 9.19, 7.9, 8.32, 11.34, 12.62, 11.36, 8.93, 7.64, 8.03, 7.32, 7.35, 7.35, 6.79, 5.59, 4.11, 2.23, 0.0, -1.26, -2.53, -3.35, -3.87, -4.02, -3.58, -3.53, -3.2, -3.07, -2.4, -1.6, 0.45, 0.0, -0.0, -1.2, -1.2, -1.2, -0.0, -0.0, -0.0, -0.0, 0.63, 2.24, 0.89, 0.63, 1.26, 0.89, 0.45, -1.58, -2.53, -1.86, -1.7, -0.89, 0.6, 2.6, 3.51, 4.43, 9.26, 12.42, 12.52, 7.76, 2.51, 2.07, 2.51, 2.4, 2.24, 2.68, 3.09, 3.32, 2.53, 1.8, 1.88, 1.88, 1.76, 5.69, 3.43, 3.48, 7.2, 9.33, 6.13, 4.27, 4.73, 5.32, 5.32, 9.8, 9.5, 9.19, 8.87, 8.87, 8.59, 8.87, 9.21, 9.5, 9.84, 9.84, 9.84, 9.84, 9.5, 9.21, 9.82, 9.8, 8.87, 6.97, 7.44, 10.24, 11.72, 11.16, 9.96, 9.48, 8.85, 7.59, 6.64, 6.32, 5.08, 4.12, 2.84, 1.13, 0.0, -0.89, -2.0, -2.91, -2.91, -3.07, -3.13, -3.07, -2.68, -3.07, -2.5, -1.86, -0.89, 0.45, -1.58, -1.4, -1.4, -1.4, -0.0, -0.0, -0.0, -0.0, 0.63, 1.2, 0.89, 0.0, 0.0, -0.89, -2.4, -3.39, -2.8, -1.7, -1.79, -1.34, -0.45, 0.99, 2.79, 6.06, 9.27, 11.71, 11.62, 9.49, 6.14, 3.44, 3.0, 1.8, 1.9, 2.6, 2.68, 2.68, 1.7, 0.54, 0.0, 0.0, 0.54, 2.21, 2.51, 2.73, 6.06, 8.24, 5.6, 3.72, 3.6, 4.43, 4.43, 9.8, 9.8, 9.19, 8.87, 8.58, 8.59, 8.87, 9.5, 9.5, 9.84, 9.84, 9.84, 9.84, 9.84, 9.84, 10.13, 9.8, 8.87, 8.58, 9.21, 10.12, 10.69, 10.36, 9.77, 10.09, 10.06, 9.02, 7.23, 5.69, 4.12, 2.22, 0.98, 0.0, 0.0, -0.45, -0.89, -1.79, -2.24, -2.24, -2.24, -2.17, -2.5, -2.53, -2.53, -1.61, -1.26, -0.95, -2.4, -1.4, -1.4, -0.0, -0.0, -0.0, -0.0, 1.34, 1.34, -0.0, -1.2, -1.79, -2.68, -2.17, -2.4, -1.86, -1.7, -1.34, -1.2, -1.34, -1.2, -0.57, -0.0, 2.15, 4.89, 3.14, 2.4, 2.9, 3.39, 4.08, 3.46, 1.93, 1.27, 1.9, 2.17, 2.24, 1.79, 1.6, 0.6, 0.6, 1.24, 3.14, 3.72, 4.07, 5.0, 5.95, 4.8, 3.2, 2.91, 3.53, 3.53, 9.8, 9.8, 9.8, 8.87, 8.58, 8.59, 9.21, 9.5, 9.54, 9.84, 9.84, 9.84, 9.84, 9.84, 9.84, 10.13, 10.12, 9.19, 9.5, 10.4, 11.28, 11.23, 10.59, 9.72, 9.72, 10.06, 9.66, 8.38, 6.79, 3.73, 1.2, 0.0, 0.0, 0.0, 0.0, -0.45, -0.89, -0.89, -1.34, -1.34, -1.7, -1.9, -2.21, -2.23, -1.84, -1.88, -1.9, -1.4, -1.4, -0.0, -0.0, -0.0, -0.0, -0.0, 1.34, 1.34, -1.2, -2.63, -2.54, -1.86, -2.23, -2.12, -1.2, -0.63, -1.2, -0.95, -0.63, -0.45, -0.89, 0.45, 0.45, -0.0, -0.6, 0.0, 0.0, 1.44, 3.46, 4.05, 2.54, 0.61, 0.59, 1.24, 1.86, 1.86, 1.86, 1.58, 1.9, 2.53, 3.72, 4.52, 5.36, 4.43, 4.12, 3.35, 2.5, 2.5, 3.6, 3.6, 9.8, 9.8, 9.8, 9.19, 8.58, 8.59, 9.21, 9.5, 9.84, 9.84, 9.84, 9.84, 9.84, 10.15, 10.45, 10.13, 9.8, 9.5, 9.8, 10.4, 11.52, 11.9, 11.62, 10.51, 9.94, 9.66, 9.66, 9.3, 8.0, 4.84, 1.58, 0.0, 0.0, 0.0, 0.0, 0.0, 0.0, -0.45, -0.45, -0.89, -1.2, -1.86, -1.61, -1.88, -2.23, -2.23, -2.21, -1.2, -0.0, -0.0, -0.0, -0.0, -0.0, -0.0, 1.34, 1.79, -0.0, -2.24, -2.24, -0.95, -0.6, -0.89, -0.45, -0.45, -0.95, -0.6, -0.0, 0.0, 0.45, 0.45, 0.0, 0.0, 1.34, 0.89, 0.0, 0.0, 2.12, 2.99, 3.2, 1.23, 0.57, 1.16, 1.61, 1.88, 1.61, 1.61, 2.23, 2.23, 3.14, 3.53, 4.73, 4.43, 3.39, 2.5, 1.61, 1.84, 3.14, 3.14, 9.8, 9.8, 9.8, 9.8, 9.19, 8.58, 9.21, 9.5, 9.84, 9.84, 9.84, 9.84, 9.84, 10.45, 10.45, 10.43, 10.12, 9.5, 9.8, 10.72, 11.87, 12.0, 12.16, 11.5, 10.96, 9.86, 9.02, 8.94, 8.29, 6.51, 3.88, 2.0, 1.7, 1.2, 0.89, 0.89, 0.45, 0.45, 0.45, 0.45, -0.45, -0.95, -1.24, -1.2, -1.88, -1.88, -1.9, -0.71, -0.71, -0.57, -0.8, 0.45, -0.0, -0.0, -0.0, -0.0, -0.0, -0.63, -1.34, -0.89, 0.0, 0.45, 0.0, -0.45, -0.6, -0.6, -0.4, -0.63, -0.89, 0.0, 0.57, 2.5, 4.41, 5.81, 4.43, 3.53, 2.68, 2.5, 3.79, 2.51, 1.8, 1.8, 1.8, 1.8, 1.6, 1.84, 1.61, 1.61, 1.26, 1.26, 1.8, 4.27, 4.11, 3.13, 1.9, 1.61, 2.53, 2.53, 9.8, 9.8, 9.8, 9.8, 9.19, 8.58, 8.58, 9.5, 10.13, 10.13, 10.13, 10.13, 9.84, 10.45, 10.45, 10.75, 9.82, 9.8, 9.8, 10.72, 11.58, 12.09, 12.27, 12.16, 11.88, 10.96, 9.86, 8.73, 8.08, 7.09, 6.03, 4.17, 3.39, 2.4, 1.7, 1.27, 1.2, 0.8, 0.63, 0.0, 0.0, -0.0, -0.57, -0.71, -0.54, -0.54, -0.54, -0.71, -0.71, -1.24, -1.24, -1.24, -1.26, -0.0, -0.0, -0.0, -0.0, -0.0, -0.45, -0.6, 0.0, 0.63, 0.45, 0.0, -0.63, -0.63, -0.6, -0.95, -1.34, -0.45, 0.57, 2.53, 5.16, 8.49, 8.63, 7.85, 5.6, 3.53, 2.84, 3.16, 2.79, 2.44, 2.44, 1.76, 1.27, 1.16, 1.61, 0.99, 0.45, -0.0, 0.61, 3.43, 4.75, 4.66, 3.98, 3.13, 2.63, 2.63, 9.8, 9.8, 9.8, 9.19, 9.19, 8.58, 8.58, 9.21, 9.82, 10.13, 10.13, 10.13, 10.13, 10.45, 10.75, 10.75, 10.13, 9.8, 9.8, 10.4, 11.28, 11.87, 12.0, 12.27, 12.16, 11.88, 10.41, 8.94, 8.08, 7.44, 6.79, 6.51, 5.49, 5.08, 4.4, 3.7, 2.97, 2.49, 2.4, 2.17, 1.7, 0.89, 0.6, -0.0, -0.0, -0.0, -0.0, -0.57, -0.99, -1.58, -1.9, -2.5, -2.21, -2.23, -1.58, -1.26, -1.2, -0.0, -0.0, -0.63, -0.71, 0.0, 0.63, 0.45, 0.45, -0.45, -0.89, -0.89, -0.95, 0.0, 0.54, 1.84, 4.09, 5.64, 6.55, 6.7, 5.05, 3.13, 1.84, 2.48, 3.15, 3.12, 2.44, 1.23, 0.57, 1.13, 1.2, 1.2, 0.6, -0.0, 0.54, 2.21, 4.12, 5.31, 5.2, 4.6, 4.3, 4.3, 9.8, 9.8, 9.8, 9.19, 8.87, 8.58, 8.87, 9.19, 9.82, 9.82, 9.82, 10.13, 10.13, 10.45, 10.43, 10.43, 10.43, 10.12, 10.09, 10.69, 11.28, 11.52, 11.8, 12.27, 12.54, 12.16, 11.34, 10.15, 8.38, 7.44, 6.79, 6.23, 6.15, 5.49, 5.47, 4.9, 4.6, 3.7, 3.82, 3.39, 2.63, 1.79, 1.26, 1.24, 1.61, 1.2, -0.0, -0.6, -1.26, -1.86, -2.15, -2.21, -2.23, -2.84, -3.16, -1.86, -1.2, -0.0, -0.0, -0.45, -0.57, -0.54, 0.0, 0.45, 0.0, 0.0, -0.63, -0.6, -0.57, 0.0, 0.54, 1.84, 2.73, 2.79, 3.32, 3.58, 3.53, 1.34, 0.65, 1.8, 3.48, 5.71, 5.38, 1.8, 0.59, 0.0, 0.0, -0.0, 1.24, 0.99, 0.6, 1.7, 4.0, 5.02, 5.44, 5.44, 5.02, 5.02, 9.77, 9.77, 9.48, 8.87, 8.58, 8.58, 8.87, 9.19, 9.82, 9.82, 9.82, 10.13, 10.43, 10.75, 10.4, 9.8, 9.8, 10.12, 10.36, 10.36, 10.94, 11.8, 11.8, 11.8, 12.27, 12.16, 11.62, 10.51, 8.94, 7.73, 7.15, 6.7, 6.15, 6.03, 5.75, 5.6, 5.4, 5.09, 4.6, 4.11, 3.39, 2.24, 1.7, 1.2, 1.26, 1.61, 0.6, -0.89, -1.34, -1.86, -1.58, -1.9, -2.53, -2.84, -3.16, -2.84, -1.26, -0.8, -0.57, -0.63, -1.2, -0.57, 0.0, 0.0, 0.45, -0.45, -0.45, -0.63, -1.26, -0.71, 0.0, 2.53, 4.46, 3.9, 3.69, 3.72, 3.07, 1.79, 1.26, 1.84, 2.79, 5.71, 6.32, 5.06, 1.61, 0.0, -0.89, -0.63, -0.0, 0.89, 0.45, 0.89, 2.68, 4.34, 4.77, 5.2, 5.2, 5.2, 9.48, 9.48, 9.48, 8.58, 8.87, 8.56, 8.56, 9.19, 9.8, 9.82, 9.82, 9.82, 10.43, 10.43, 10.12, 9.77, 9.48, 10.09, 10.36, 10.36, 11.23, 11.44, 11.44, 11.72, 11.72, 11.9, 11.62, 10.7, 9.3, 8.08, 7.35, 6.7, 6.56, 6.41, 6.03, 6.28, 6.1, 5.7, 5.4, 5.09, 4.3, 3.09, 2.68, 2.17, 1.58, 0.8, 0.95, 0.45, 0.45, -0.0, -0.0, -0.0, -1.2, -1.88, -2.23, -2.51, -2.23, -1.84, -1.24, -1.26, -1.34, -0.6, -0.6, -1.26, -0.89, -1.2, -1.2, -0.89, -0.89, -0.57, 0.0, 2.53, 5.59, 7.47, 7.27, 6.05, 4.74, 3.6, 2.91, 2.5, 2.23, 5.1, 6.32, 6.28, 4.71, 1.86, 0.0, -1.34, -1.34, -0.89, -0.63, 0.0, 1.7, 3.58, 4.47, 4.88, 4.88, 4.88, 9.17, 9.17, 9.17, 8.87, 8.56, 8.85, 8.56, 9.19, 9.8, 10.12, 10.12, 9.82, 10.43, 10.43, 9.82, 10.09, 9.17, 9.77, 10.36, 11.23, 11.23, 11.44, 11.44, 11.72, 11.72, 11.72, 11.62, 10.7, 9.21, 8.55, 7.9, 7.61, 7.48, 6.95, 6.56, 6.8, 6.4, 6.6, 6.1, 5.81, 5.09, 4.3, 3.53, 3.13, 2.24, 1.34, 1.79, 2.68, 1.7, 1.86, 1.86, 1.86, 1.58, -0.0, -1.2, -1.84, -1.84, -1.6, -2.23, -1.86, -2.24, -1.49, -1.26, -1.26, -0.89, -0.63, -1.2, -0.45, 0.45, 1.26, 0.61, 1.13, 3.07, 8.05, 10.18, 9.84, 8.3, 6.08, 4.09, 4.0, 2.84, 1.8, 3.85, 5.37, 6.15, 6.0, 3.32, -0.89, -2.68, -2.49, -2.4, -0.6, 0.63, 2.68, 4.02, 4.47, 4.92, 4.92, 8.87, 8.87, 8.87, 8.56, 8.85, 8.85, 9.17, 9.19, 9.8, 9.8, 10.12, 10.12, 10.12, 10.43, 9.82, 9.8, 9.77, 9.77, 10.36, 10.94, 11.8, 11.8, 11.44, 11.72, 11.72, 11.99, 11.62, 10.51, 8.68, 8.0, 8.55, 8.18, 7.9, 7.76, 7.48, 7.31, 7.31, 6.9, 7.01, 6.6, 5.81, 5.24, 4.77, 4.44, 3.58, 3.58, 3.58, 4.02, 3.98, 3.39, 3.39, 2.91, 2.49, 1.86, 1.26, -0.65, -1.16, -1.84, -2.23, -3.82, -2.24, -2.12, -1.7, -1.2, -0.89, -0.0, -0.0, 0.45, 0.8, 2.23, 1.88, 0.0, 0.65, 4.02, 9.83, 10.16, 7.67, 4.43, 4.12, 5.31, 4.27, 2.79, 2.15, 4.55, 6.51, 7.51, 6.79, 3.2, -0.45, -2.53, -2.98, -1.84, -0.0, 1.2, 3.53, 3.98, 4.3, 4.3, 8.85, 8.85, 8.85, 8.85, 8.56, 9.17, 9.17, 9.48, 9.8, 9.8, 9.8, 9.8, 10.12, 10.12, 10.12, 9.8, 9.8, 10.09, 10.69, 11.28, 11.52, 11.87, 11.8, 12.09, 11.99, 12.16, 11.99, 10.51, 8.94, 8.32, 8.08, 8.29, 8.0, 8.15, 8.0, 7.81, 7.81, 8.0, 7.58, 7.09, 6.36, 6.04, 5.7, 5.33, 4.92, 4.47, 4.47, 4.88, 4.88, 4.44, 4.44, 3.98, 3.53, 2.63, 1.7, 0.6, -0.0, -1.2, -2.21, -2.91, -3.13, -1.2, -1.79, -0.89, -0.95, -0.8, -0.0, 0.0, 0.95, 1.26, 0.6, 0.0, 0.0, 2.84, 8.36, 9.36, 4.24, 1.58, 2.4, 4.43, 6.22, 5.36, 4.47, 4.47, 7.97, 8.77, 8.64, 8.0, 2.6, -0.59, -3.2, -1.94, -1.13, -0.0, 1.13, 3.14, 3.72, 3.72, 8.85, 8.85, 8.85, 8.85, 9.17, 9.17, 9.48, 9.48, 9.8, 9.8, 9.8, 9.8, 10.12, 10.12, 9.8, 9.8, 9.77, 10.09, 10.69, 11.28, 11.52, 11.87, 12.37, 12.0, 12.16, 12.54, 12.16, 11.07, 9.94, 9.3, 8.38, 7.73, 7.9, 7.76, 8.0, 8.0, 8.3, 8.48, 8.48, 8.17, 7.26, 6.51, 6.16, 5.78, 5.36, 5.36, 5.36, 4.89, 4.89, 4.88, 4.44, 4.02, 3.58, 3.13, 2.24, 1.2, 0.95, -0.0, -1.24, -1.86, -0.89, 0.45, 0.45, -0.63, -1.6, -1.7, -1.2, -0.89, -0.89, -0.95, -0.89, -0.89, 0.71, 3.38, 8.67, 9.83, 4.92, 3.32, 3.6, 6.11, 7.57, 7.6, 7.6, 7.6, 7.57, 9.68, 10.14, 10.01, 3.58, -0.57, -1.35, -1.27, -1.33, -0.53, 0.53, 2.51, 3.16, 3.16, 8.53, 8.53, 9.13, 9.46, 9.17, 9.17, 9.48, 9.77, 9.8, 9.8, 9.8, 9.8, 9.8, 9.8, 10.09, 9.77, 9.77, 10.36, 10.69, 11.28, 11.28, 11.8, 11.8, 12.0, 12.27, 12.27, 12.54, 11.62, 10.51, 9.59, 9.21, 8.0, 7.9, 7.76, 7.76, 8.51, 8.51, 8.72, 8.96, 8.64, 7.87, 7.07, 6.23, 6.26, 6.26, 5.81, 5.81, 5.36, 5.36, 4.92, 4.47, 4.47, 3.58, 3.13, 2.68, 1.79, 1.34, 0.63, -0.0, -0.0, -0.89, 0.45, 0.45, -0.63, -0.63, -1.34, -1.34, -1.34, -1.7, -1.7, -1.7, 0.0, 2.23, 6.7, 9.27, 10.02, 8.82, 8.8, 9.2, 10.32, 9.83, 8.91, 7.94, 7.48, 7.48, 9.68, 10.6, 5.32, 1.2, -0.63, -0.57, -0.59, -0.0, -0.0, -0.0, 1.0, 2.23, 2.23, 9.13, 9.13, 9.13, 9.17, 9.17, 9.17, 9.48, 9.77, 10.09, 9.8, 10.4, 10.4, 9.8, 10.09, 10.09, 9.77, 10.06, 10.36, 10.94, 10.94, 10.94, 11.23, 11.8, 11.8, 12.27, 12.27, 12.54, 11.62, 10.7, 9.86, 9.21, 8.55, 8.27, 8.15, 8.28, 8.51, 8.51, 8.72, 8.72, 8.48, 7.87, 7.07, 6.68, 6.26, 6.26, 6.26, 6.26, 5.81, 5.81, 5.33, 4.89, 4.44, 4.02, 3.13, 2.68, 2.24, 1.34, 0.89, 0.63, -0.0, -0.0, -0.6, -0.63, -0.63, -0.0, 0.45, -0.89, -1.79, -1.79, -1.79, -1.2, -0.63, 2.24, 6.71, 9.81, 8.46, 8.01, 9.83, 11.71, 12.95, 11.62, 8.38, 5.2, 4.73, 4.77, 5.78, 6.22, 3.58, -0.0, -0.0, 0.59, 0.51, 0.54, 0.57, 0.57, 0.99, 1.61, 1.61, 9.13, 9.13, 9.46, 9.17, 9.17, 9.17, 9.48, 9.77, 10.09, 10.36, 10.4, 10.4, 9.8, 10.09, 9.77, 9.77, 10.06, 10.36, 10.69, 10.94, 11.23, 11.23, 11.44, 11.72, 11.72, 12.16, 12.54, 12.16, 11.07, 10.41, 9.21, 8.65, 8.55, 8.82, 8.68, 8.68, 8.91, 8.51, 8.72, 8.48, 7.74, 7.4, 6.61, 5.36, 6.26, 6.71, 6.68, 6.23, 5.72, 5.26, 4.8, 4.34, 3.98, 3.53, 3.13, 2.24, 1.79, 1.34, 0.89, -0.0, -0.0, -0.0, -0.89, -0.89, 0.45, -0.0, -1.26, -1.86, -1.7, -1.79, -1.34, -0.89, 0.95, 5.94, 10.16, 8.49, 5.16, 7.76, 11.4, 12.79, 11.09, 7.57, 4.88, 3.87, 3.98, 4.47, 4.47, 3.6, 1.8, 1.84, 1.61, 2.21, 1.9, 1.86, 1.7, 1.7, 2.17, 1.58, 9.46, 9.46, 9.46, 9.17, 9.17, 9.17, 9.48, 9.77, 10.09, 10.36, 10.36, 10.36, 10.09, 10.09, 9.77, 9.77, 9.72, 10.36, 10.94, 11.23, 11.23, 11.23, 11.16, 11.72, 11.72, 11.99, 12.16, 12.16, 11.88, 10.41, 9.5, 9.21, 9.1, 9.1, 9.35, 9.2, 9.2, 9.01, 8.72, 7.81, 7.51, 7.26, 6.3, 4.87, 6.26, 7.15, 7.07, 6.51, 5.99, 5.57, 5.24, 4.77, 4.3, 3.39, 3.09, 2.63, 2.24, 1.79, 0.89, 0.89, 0.63, -0.0, 0.45, 0.45, 0.45, -0.0, -1.26, -1.86, -1.6, -0.8, -0.89, -1.34, -0.0, 4.3, 10.49, 9.58, 4.43, 6.08, 9.78, 11.2, 9.68, 7.48, 5.78, 4.43, 3.58, 3.53, 4.3, 3.72, 3.72, 3.6, 3.07, 2.91, 3.07, 2.6, 2.24, 2.24, 2.68, 2.17, 9.13, 9.13, 9.46, 9.17, 9.17, 9.17, 9.48, 9.77, 10.09, 10.36, 10.36, 10.36, 10.09, 10.09, 10.09, 9.72, 9.72, 9.77, 10.88, 10.88, 10.88, 10.88, 11.16, 11.35, 11.72, 11.62, 11.62, 11.62, 11.88, 10.96, 10.3, 9.21, 8.84, 9.1, 9.1, 9.35, 9.2, 9.01, 8.51, 8.3, 8.0, 7.51, 6.6, 5.81, 5.16, 7.51, 7.4, 6.3, 5.31, 5.09, 4.6, 4.34, 4.3, 3.82, 3.39, 3.07, 2.63, 1.79, 1.34, 1.34, 1.34, 0.63, -0.0, 0.45, 0.45, 0.89, -1.2, -1.6, -1.2, -0.63, -0.45, -0.89, 0.0, 2.68, 6.45, 9.45, 8.55, 4.92, 6.64, 7.54, 6.25, 5.02, 4.88, 4.02, 3.53, 3.82, 4.3, 4.73, 4.77, 4.87, 4.43, 3.98, 3.58, 3.13, 2.68, 2.6, 3.07, 2.68, 9.13, 9.13, 9.46, 9.46, 9.17, 9.17, 9.17, 9.77, 10.09, 10.09, 10.36, 10.36, 10.09, 10.09, 9.77, 9.72, 9.72, 9.77, 10.36, 10.65, 10.88, 11.16, 11.16, 11.16, 11.62, 11.62, 11.62, 11.5, 11.12, 11.22, 10.68, 9.76, 9.38, 9.48, 9.1, 9.35, 9.2, 9.01, 9.01, 8.72, 8.3, 8.0, 7.01, 6.51, 6.28, 6.79, 6.79, 5.4, 4.6, 4.19, 4.3, 4.3, 3.87, 3.82, 3.39, 2.91, 3.07, 2.17, 1.79, 1.79, 1.34, 1.34, 0.45, 0.89, 0.89, 1.34, 0.45, -0.0, -0.63, -0.63, -0.89, -0.95, 0.0, 0.6, 2.24, 5.2, 8.63, 7.73, 4.88, 3.97, 2.68, 3.09, 4.02, 4.47, 4.47, 4.47, 4.92, 4.92, 5.36, 5.36, 4.92, 4.47, 4.02, 3.53, 3.07, 2.91, 2.91, 2.91, 9.42, 9.42, 9.46, 9.46, 9.17, 9.17, 9.17, 9.77, 9.77, 10.09, 10.36, 10.09, 10.09, 9.77, 9.46, 9.46, 9.72, 10.09, 10.36, 10.65, 10.3, 10.8, 11.16, 11.16, 11.44, 11.24, 11.24, 11.5, 11.22, 10.83, 10.83, 10.3, 9.92, 10.02, 9.63, 9.35, 8.96, 9.2, 9.01, 9.01, 8.72, 8.3, 7.81, 7.31, 7.31, 7.31, 6.79, 5.57, 4.8, 4.34, 3.87, 3.87, 3.39, 3.39, 3.39, 2.91, 3.07, 2.6, 2.24, 2.24, 1.79, 1.79, 1.34, 0.89, 1.34, -0.0, -0.0, -0.0, -0.0, -0.45, -1.2, -0.99, -0.8, 0.0, 0.8, 3.04, 5.36, 9.11, 8.91, 5.86, 4.0, 4.52, 6.85, 7.48, 6.26, 4.73, 4.73, 4.77, 4.77, 4.88, 4.88, 4.43, 3.87, 3.39, 3.07, 3.07, 3.07, 3.07, 9.42, 9.42, 9.46, 9.46, 9.46, 9.17, 9.17, 9.77, 9.77, 10.09, 10.09, 10.09, 10.09, 9.72, 9.46, 9.46, 9.72, 10.09, 10.36, 10.3, 10.59, 10.59, 10.8, 10.8, 11.07, 11.07, 11.34, 11.34, 10.96, 10.83, 10.83, 10.55, 10.55, 10.16, 9.63, 9.63, 8.96, 9.2, 8.68, 9.01, 8.51, 8.72, 8.22, 7.81, 7.31, 7.51, 7.26, 6.51, 6.14, 5.24, 4.44, 3.98, 3.53, 3.39, 2.91, 2.91, 3.07, 2.63, 2.6, 2.24, 2.24, 2.24, 1.79, 0.89, 1.34, 1.26, -0.0, -0.0, -0.0, -0.89, -0.95, -1.24, -0.54, 0.0, 1.16, 2.23, 4.3, 8.05, 10.75, 10.8, 10.28, 11.05, 11.85, 10.6, 7.57, 3.82, 3.14, 3.16, 3.72, 4.0, 4.11, 4.0, 3.35, 2.53, 2.53, 2.84, 2.84, 2.84, 9.42, 9.42, 9.46, 9.46, 9.46, 9.17, 9.17, 9.77, 9.77, 9.77, 10.09, 10.09, 9.77, 9.46, 9.46, 9.72, 10.06, 10.36, 10.36, 10.3, 10.59, 10.59, 10.59, 10.8, 11.07, 11.07, 11.34, 10.96, 10.96, 11.22, 10.83, 10.55, 10.55, 10.16, 9.63, 9.48, 8.96, 8.68, 8.68, 8.68, 8.91, 8.51, 8.3, 7.81, 7.31, 7.51, 7.51, 7.26, 6.94, 6.04, 5.24, 4.77, 3.98, 3.53, 3.07, 3.07, 2.63, 2.63, 2.6, 2.68, 2.24, 2.24, 2.24, 1.79, 1.34, 1.26, -0.0, -0.0, -0.0, -0.8, -0.8, -0.54, 0.0, 0.53, 1.4, 1.61, 3.32, 5.36, 9.26, 9.9, 11.2, 12.7, 13.54, 11.99, 8.48, 3.97, 1.9, 1.13, 2.23, 2.51, 4.29, 2.51, 2.07, 1.84, 2.07, 1.8, 1.8, 1.8, 9.42, 9.42, 9.46, 9.46, 9.46, 9.17, 9.44, 9.77, 9.77, 9.77, 9.77, 9.77, 9.72, 9.13, 9.13, 9.72, 10.06, 10.09, 10.36, 10.3, 10.59, 10.59, 10.59, 10.8, 11.07, 11.07, 11.07, 11.34, 10.96, 10.96, 11.22, 10.83, 10.83, 10.55, 10.16, 9.88, 9.48, 9.2, 8.68, 8.68, 8.68, 8.51, 8.51, 8.0, 7.71, 7.31, 7.51, 7.09, 7.21, 6.3, 6.04, 5.7, 4.8, 4.3, 3.53, 2.63, 2.63, 2.6, 2.6, 2.6, 2.24, 2.24, 2.24, 2.24, 1.79, 1.34, 1.26, -0.0, -0.45, -0.63, -0.71, -0.54, 0.0, 0.0, 0.6, 0.45, 1.79, 4.02, 6.28, 6.39, 7.52, 11.54, 13.75, 11.99, 9.45, 6.64, 3.13, 1.2, 0.61, 0.98, 1.8, 1.13, 1.27, 0.66, 0.66, 0.66, 0.66, 0.66, 9.13, 9.13, 9.13, 9.46, 9.17, 9.17, 9.44, 9.77, 9.77, 9.77, 9.77, 9.77, 9.72, 9.13, 9.13, 9.72, 10.06, 9.77, 9.77, 10.06, 10.23, 10.23, 10.59, 10.8, 11.07, 11.07, 11.07, 11.07, 11.34, 11.34, 10.96, 10.96, 11.22, 10.83, 10.55, 10.16, 9.88, 9.71, 9.2, 9.2, 8.8, 8.91, 8.51, 8.0, 7.6, 7.71, 7.31, 7.51, 7.01, 6.79, 6.3, 5.99, 5.57, 4.8, 3.53, 3.07, 2.63, 2.6, 2.6, 2.17, 2.24, 2.24, 2.24, 2.24, 1.79, 0.89, 1.79, 0.89, 0.45, 0.45, 0.0, -0.6, -0.4, 0.0, 0.0, -0.0, 1.2, 2.91, 3.16, 2.88, 4.56, 9.84, 13.23, 12.25, 10.09, 8.0, 3.97, 0.57, -0.54, 0.0, 0.0, 0.0, 0.0, 0.0, 0.0, -0.59, -0.59, -0.59, 8.82, 8.82, 9.13, 9.46, 9.17, 9.17, 9.44, 9.77, 9.77, 9.77, 9.77, 9.77, 9.72, 9.13, 9.46, 9.72, 9.77, 10.09, 9.77, 10.06, 9.72, 10.23, 10.59, 10.59, 11.07, 11.07, 11.07, 11.07, 11.07, 11.07, 11.34, 10.96, 10.96, 10.83, 10.68, 10.55, 10.16, 9.88, 9.71, 9.71, 9.2, 9.01, 8.91, 8.51, 8.0, 7.71, 7.31, 7.51, 7.01, 6.6, 6.3, 5.88, 5.4, 5.09, 3.87, 3.53, 3.07, 2.63, 2.6, 2.17, 2.24, 2.24, 1.79, 1.79, 1.79, 1.79, 1.79, 1.34, 0.89, -0.45, -0.45, -0.45, -0.89, -0.45, -0.45, -0.0, 0.63, 1.24, 2.07, 2.48, 3.48, 7.67, 10.29, 10.47, 9.82, 7.46, 3.53, 0.0, -0.95, -0.6, -0.53, -0.66, -1.27, -1.27, -1.84, -1.61, -1.61, -1.61, 8.82, 8.82, 8.82, 9.13, 9.46, 9.17, 9.17, 9.77, 9.77, 9.77, 9.77, 9.77, 9.72, 9.46, 9.46, 9.72, 9.77, 9.77, 10.06, 9.72, 9.72, 10.23, 10.59, 10.59, 10.59, 10.8, 11.07, 11.07, 11.07, 11.07, 11.07, 11.34, 10.96, 10.41, 10.68, 10.3, 10.16, 10.02, 9.88, 9.71, 9.3, 9.42, 9.01, 8.51, 8.0, 7.6, 7.31, 7.31, 7.09, 7.01, 6.51, 6.3, 5.81, 5.31, 4.77, 3.87, 3.39, 3.07, 3.07, 2.6, 2.17, 2.24, 1.79, 1.79, 1.7, 0.89, 0.45, 0.45, -0.0, -0.95, -0.95, -0.63, -0.89, -0.89, -0.89, -0.45, -0.0, -0.0, 0.53, 1.84, 2.84, 4.12, 5.94, 8.27, 9.14, 7.84, 0.8, -1.61, -1.86, 0.0, 0.0, -1.33, -1.84, -2.21, -2.5, -1.9, -1.9, -1.9, 8.82, 8.82, 8.5, 8.82, 9.13, 9.46, 9.17, 9.77, 9.77, 9.77, 9.77, 9.77, 9.72, 9.72, 9.72, 10.06, 9.77, 9.77, 10.06, 9.72, 9.72, 10.23, 10.59, 10.59, 10.59, 10.59, 10.8, 11.07, 11.07, 11.07, 11.07, 11.07, 10.96, 10.41, 10.41, 10.3, 9.76, 10.02, 9.63, 9.48, 9.71, 9.2, 9.2, 8.91, 8.0, 7.6, 7.31, 7.31, 7.51, 7.01, 6.6, 6.3, 5.81, 5.09, 4.6, 4.11, 3.87, 3.39, 2.97, 3.07, 2.6, 2.17, 2.12, 1.7, 1.7, 0.63, 0.0, 0.45, -1.34, -1.34, -0.63, -0.0, -0.0, -1.34, -1.34, -1.34, -0.63, -0.6, -0.0, 1.2, 2.23, 2.51, 2.79, 5.72, 9.08, 6.26, 2.91, 0.0, -1.2, 0.0, 0.54, 0.0, -1.9, -2.0, -2.12, -1.7, -1.7, -1.7, 8.82, 8.82, 8.5, 8.5, 9.08, 9.13, 9.46, 9.72, 9.77, 9.77, 9.77, 10.06, 9.72, 9.72, 9.77, 9.77, 9.77, 10.06, 9.72, 9.72, 9.72, 9.72, 10.59, 10.59, 10.59, 10.59, 10.8, 10.8, 11.07, 11.07, 11.07, 10.7, 10.51, 10.41, 10.41, 10.13, 9.76, 9.38, 9.48, 9.35, 9.35, 9.2, 9.2, 8.68, 8.0, 7.6, 7.31, 7.31, 6.8, 7.01, 6.6, 6.1, 5.81, 4.9, 4.6, 4.6, 4.11, 3.87, 3.39, 3.39, 3.07, 2.6, 2.17, 2.12, 1.86, 1.58, 0.0, -0.63, -1.79, -1.7, -1.79, -0.45, 0.63, 0.89, -0.89, -1.34, -1.34, -0.63, -0.0, -0.0, 1.2, 1.84, 2.84, 4.52, 10.73, 8.05, 2.97, 0.0, 0.0, 0.0, 0.53, 0.54, -0.63, -1.79, -1.34, -1.34, -1.34, -1.34, 8.5, 8.5, 8.78, 8.78, 8.78, 9.08, 9.42, 9.13, 9.46, 9.72, 9.72, 9.72, 9.72, 9.77, 9.77, 9.77, 9.77, 9.72, 9.72, 9.72, 9.72, 10.06, 10.59, 10.59, 10.59, 10.59, 10.59, 10.8, 10.8, 11.07, 11.07, 10.51, 10.51, 10.41, 9.86, 9.86, 9.76, 9.21, 9.48, 9.1, 9.35, 8.96, 8.68, 8.28, 8.0, 7.48, 7.08, 7.2, 6.8, 6.6, 6.51, 6.1, 5.81, 5.31, 4.8, 4.6, 4.11, 4.11, 3.87, 3.39, 3.39, 2.91, 2.4, 2.4, 2.23, 1.58, 0.6, 0.0, -0.89, -1.79, -1.86, -0.99, 0.0, 1.2, 0.0, -0.63, -0.89, -0.63, -0.0, -0.0, 0.57, 1.88, 2.79, 10.25, 11.62, 8.49, 2.6, 0.0, 0.0, 0.61, 1.16, 0.54, -0.32, -1.34, -1.2, -0.99, -0.99, -0.99, 8.78, 8.78, 8.78, 8.78, 8.78, 8.78, 9.08, 9.42, 9.42, 9.46, 9.46, 9.72, 9.77, 9.77, 9.77, 9.77, 9.72, 9.72, 9.72, 9.72, 9.72, 10.06, 10.3, 10.59, 10.59, 10.59, 10.59, 10.59, 10.59, 10.8, 10.87, 10.51, 10.51, 10.41, 9.86, 9.86, 9.76, 9.21, 9.48, 9.1, 9.35, 8.96, 8.68, 8.15, 7.76, 7.48, 7.08, 6.8, 6.8, 6.51, 6.1, 6.3, 5.81, 5.31, 4.9, 4.4, 4.52, 4.11, 3.7, 3.6, 3.2, 3.32, 2.91, 2.8, 2.4, 1.9, 2.21, 1.86, 0.45, 0.45, -0.32, -0.57, 0.0, 0.0, 0.0, 0.0, -0.89, 0.45, -0.0, -0.0, -0.0, 1.24, 4.93, 9.11, 10.52, 7.04, 1.79, -0.65, 0.0, 0.61, 1.16, 0.53, -0.63, -0.89, -0.6, -0.54, -0.54, -0.54, 8.78, 8.78, 8.78, 9.37, 9.08, 9.08, 9.08, 9.42, 9.42, 9.72, 9.72, 10.06, 9.77, 9.77, 9.77, 9.17, 9.46, 9.46, 9.72, 9.72, 9.72, 10.06, 10.06, 10.3, 10.59, 10.59, 10.59, 10.59, 10.59, 10.59, 10.87, 10.51, 10.15, 10.41, 9.86, 9.86, 9.76, 9.21, 9.48, 9.1, 9.35, 8.96, 8.68, 8.28, 8.0, 7.48, 7.08, 6.8, 6.4, 6.51, 6.1, 5.81, 5.4, 5.31, 4.9, 4.8, 4.4, 3.88, 4.11, 3.7, 3.6, 3.2, 3.07, 2.68, 2.68, 2.5, 2.5, 1.86, 0.45, -0.0, 0.0, 0.45, 0.0, 0.0, -0.54, -0.57, -0.6, 0.0, 0.0, 0.45, -0.0, 0.63, 3.6, 5.6, 7.06, 5.02, 2.68, 0.0, 0.0, 0.0, 0.59, 0.0, 0.0, 0.0, -0.0, -0.0, -0.0, -0.0, 8.78, 8.78, 9.08, 9.08, 9.08, 9.08, 9.42, 9.42, 9.72, 9.72, 10.06, 9.77, 9.77, 9.77, 9.77, 9.17, 9.46, 9.46, 9.46, 9.72, 9.72, 10.06, 10.06, 10.3, 10.3, 10.59, 10.59, 10.59, 10.59, 10.59, 10.51, 10.51, 10.15, 10.23, 9.86, 9.5, 9.76, 9.21, 9.48, 9.1, 8.96, 8.82, 8.68, 8.28, 8.0, 7.48, 7.08, 6.8, 6.8, 6.51, 6.1, 5.6, 5.31, 5.31, 4.9, 4.8, 4.4, 4.27, 3.88, 3.88, 3.6, 3.6, 3.07, 3.07, 3.07, 2.5, 2.5, 1.86, 0.95, 0.0, 0.0, 0.0, 0.0, -0.54, -1.24, -0.6, 0.0, 0.0, 0.0, 0.45, 0.0, 0.89, 2.17, 3.82, 4.52, 4.73, 3.53, 1.2, 0.0, 0.0, 0.0, 0.0, 0.0, 0.63, 0.63, -0.0, -0.0, -0.0, 9.08, 9.08, 9.08, 9.08, 9.42, 9.42, 9.13, 9.72, 10.06, 9.77, 9.77, 9.77, 9.77, 9.77, 9.48, 9.17, 9.46, 9.46, 9.46, 9.72, 9.72, 10.06, 10.06, 10.06, 10.06, 10.59, 10.59, 10.59, 10.59, 10.23, 10.51, 10.15, 9.94, 9.86, 9.86, 9.76, 9.58, 9.21, 9.48, 9.1, 8.96, 8.82, 8.68, 8.28, 8.0, 8.0, 7.48, 6.95, 6.8, 6.28, 6.1, 5.6, 5.31, 5.31, 4.9, 4.55, 4.8, 4.27, 4.27, 3.88, 3.72, 3.35, 3.35, 3.14, 2.79, 3.07, 2.5, 2.23, 0.95, 0.45, 0.0, 0.0, -0.6, -1.9, -1.58, -0.6, 0.0, 0.0, 0.0, -0.63, 0.0, 0.4, 1.7, 3.13, 4.43, 5.32, 4.88, 2.68, 0.0, -1.24, -1.2, -1.2, 0.0, 1.49, 1.2, 0.65, 0.65, 0.65, 9.08, 9.08, 9.42, 9.42, 9.42, 9.46, 9.72, 10.06, 9.77, 9.77, 9.77, 9.77, 10.06, 9.72, 9.46, 9.17, 9.46, 9.46, 9.46, 9.46, 9.72, 9.72, 10.06, 10.06, 9.72, 10.01, 10.01, 10.23, 10.23, 10.23, 10.51, 9.94, 9.59, 9.86, 9.5, 9.58, 9.21, 9.48, 9.1, 9.1, 8.96, 8.43, 8.68, 8.28, 8.0, 8.0, 7.48, 7.08, 6.56, 6.67, 6.28, 5.6, 5.47, 5.08, 4.69, 4.55, 4.55, 4.0, 4.0, 3.64, 3.72, 3.72, 3.35, 3.14, 2.79, 2.79, 2.5, 2.15, 1.26, 0.0, 0.0, 0.0, -0.6, -1.58, -1.61, -0.54, 0.0, 0.0, -0.6, -0.6, -0.6, 0.0, 1.24, 2.91, 4.47, 6.26, 6.26, 4.02, 1.7, 0.0, -0.57, -0.54, 0.54, 1.49, 2.0, 1.16, 1.16, 1.16, 9.13, 9.13, 9.42, 9.42, 9.42, 9.46, 9.72, 10.06, 9.77, 9.77, 9.77, 9.77, 10.06, 9.72, 9.46, 9.46, 9.46, 9.46, 9.46, 9.46, 9.46, 9.72, 9.72, 9.72, 9.72, 10.01, 10.01, 10.01, 10.01, 10.01, 9.94, 9.94, 9.86, 9.5, 9.58, 9.21, 9.48, 9.1, 9.1, 8.96, 8.96, 8.43, 8.68, 8.28, 8.0, 8.0, 7.48, 7.48, 6.95, 6.8, 6.28, 6.0, 5.6, 5.08, 5.08, 4.55, 4.55, 4.0, 4.0, 4.0, 3.43, 3.43, 3.43, 2.84, 3.14, 2.79, 2.21, 2.15, 1.86, 0.8, 0.0, 0.0, -0.63, -0.6, -0.57, -0.65, -0.65, -0.6, -0.63, -0.6, -0.8, 0.0, 1.2, 3.07, 4.73, 7.12, 7.15, 5.36, 4.02, 2.6, 1.26, 0.99, 1.86, 2.24, 3.07, 2.53, 2.53, 2.53, 9.13, 9.13, 9.13, 9.13, 9.13, 9.46, 9.46, 9.72, 9.77, 9.77, 9.77, 9.77, 9.77, 9.72, 9.46, 9.46, 9.46, 9.46, 9.46, 9.46, 9.46, 9.72, 9.72, 9.72, 10.01, 10.01, 10.01, 10.01, 9.66, 9.94, 9.94, 9.59, 9.86, 9.3, 9.21, 9.21, 9.1, 9.1, 8.72, 8.96, 8.82, 8.68, 8.68, 8.28, 8.0, 8.0, 7.6, 7.48, 7.48, 6.95, 6.67, 5.75, 5.75, 5.21, 5.08, 4.93, 4.55, 4.37, 4.0, 4.0, 4.0, 3.78, 3.43, 3.16, 2.84, 2.79, 2.53, 2.5, 1.9, 1.58, 0.8, 0.0, 0.0, 0.0, 0.0, -0.57, -1.24, -0.89, -0.45, -0.6, -0.57, 0.0, 1.16, 3.14, 4.52, 7.56, 7.6, 6.26, 4.92, 4.47, 3.53, 3.07, 3.13, 3.39, 3.35, 3.16, 3.16, 3.16, 9.13, 9.13, 9.46, 9.46, 9.46, 9.46, 9.46, 9.46, 9.72, 9.77, 9.77, 9.77, 9.77, 9.77, 9.46, 9.46, 9.46, 9.46, 9.46, 9.46, 9.46, 9.46, 9.46, 9.72, 10.01, 10.01, 9.66, 9.66, 9.94, 9.94, 9.59, 9.86, 9.5, 9.3, 9.21, 9.48, 9.1, 9.1, 8.96, 8.82, 8.82, 8.68, 8.68, 8.28, 8.4, 8.0, 8.0, 7.48, 7.48, 7.08, 6.41, 6.28, 5.75, 5.21, 5.21, 4.65, 4.29, 4.07, 4.07, 3.73, 3.73, 3.48, 3.43, 3.16, 2.84, 2.84, 2.53, 2.21, 1.9, 1.58, 1.24, 0.57, 0.95, 0.89, 0.0, -1.2, -1.26, -0.89, -0.89, -0.6, 0.0, 0.0, 1.33, 2.51, 4.66, 7.01, 7.6, 6.71, 5.81, 5.32, 4.87, 3.98, 3.87, 4.11, 3.72, 3.49, 3.49, 3.49, 9.13, 9.13, 9.46, 9.46, 9.46, 9.46, 9.46, 9.46, 9.72, 9.77, 9.77, 9.77, 9.77, 9.77, 9.46, 9.46, 9.46, 9.46, 9.46, 9.46, 9.46, 9.46, 9.46, 9.72, 10.01, 10.01, 9.66, 9.66, 9.94, 9.94, 9.59, 9.86, 9.5, 9.3, 9.21, 9.48, 9.1, 9.1, 8.96, 8.82, 8.82, 8.68, 8.68, 8.28, 8.4, 8.0, 8.0, 7.48, 7.48, 7.08, 6.41, 6.28, 5.75, 5.21, 5.21, 4.65, 4.29, 4.07, 4.07, 3.73, 3.73, 3.48, 3.43, 3.16, 2.84, 2.84, 2.53, 2.21, 1.9, 1.58, 1.24, 0.57, 0.95, 0.89, 0.0, -1.2, -1.2, -0.89, -0.89, -0.6, 0.0, 0.0, 1.13, 2.79, 4.46, 6.79, 7.57, 7.6, 7.12, 6.98, 6.79, 6.36, 5.44, 4.93, 4.4, 4.0, 4.0, 4.0]}, {"header": {"dx": 0.06612293990616946, "dy": 0.0552356325346848, "nx": 98, "ny": 59, "la1": 35.046912555036876, "la2": 31.78801023549047, "lo1": -121.43107172385933, "lo2": -114.95102361305473, "refTime": "2026040807", "parameterCategory": 1, "parameterNumber": 3}, "data": [-11.72, -11.16, -10.8, -10.23, -9.94, -9.02, -8.45, -8.15, -7.51, -6.87, -5.59, -3.64, -1.86, -1.34, -1.34, -2.91, -3.48, -4.43, -4.19, -4.19, -3.72, -2.99, -2.0, -2.07, -2.53, -2.53, -2.68, -3.07, -2.68, -2.68, -2.17, -1.86, -0.71, 0.0, 0.0, 0.0, 0.0, 0.0, 0.0, 0.0, 0.0, 0.0, -1.6, -3.91, -5.46, -6.87, -7.82, -8.5, -7.93, -7.71, -5.28, 2.4, 4.92, 4.92, 5.16, 4.46, 4.74, 3.9, 3.55, 3.0, 2.2, 2.11, 1.41, 1.6, 1.88, 2.3, 2.88, 3.0, 2.99, 3.02, 3.07, 2.39, 1.49, 1.52, 1.41, 2.9, 3.06, 2.65, 1.6, 0.73, 0.0, 0.0, -0.0, -0.0, 0.65, 0.71, 1.2, 0.89, 0.0, -0.63, -2.31, -3.7, -4.5, -4.71, -4.4, -3.88, -3.06, -1.49, -11.72, -11.72, -11.16, -10.59, -10.23, -9.59, -9.37, -8.78, -8.15, -7.17, -6.23, -3.14, -1.9, -0.57, 0.0, -0.63, -2.4, -3.48, -4.19, -3.64, -5.44, -4.46, -2.76, -1.49, -1.84, -1.88, -2.5, -2.5, -2.91, -2.63, -2.24, -1.34, -0.63, 0.0, 0.54, 0.0, 0.0, 0.0, -0.63, -0.66, -0.61, -1.6, -3.91, -7.64, -9.9, -11.06, -11.19, -10.43, -9.66, -8.29, -0.7, 4.02, 4.92, 4.87, 4.52, 4.84, 4.74, 4.65, 3.79, 2.9, 2.9, 2.2, 2.4, 3.07, 2.79, 2.98, 3.11, 3.0, 3.09, 3.11, 3.76, 3.02, 2.23, 0.74, 0.76, 2.2, 3.06, 2.65, 1.6, 0.73, 0.0, 0.0, -0.0, -0.0, 0.65, 0.71, 1.2, 0.89, 0.0, -0.63, -2.31, -3.7, -4.5, -4.71, -4.4, -3.88, -3.06, -1.49, -11.52, -11.72, -11.72, -11.16, -10.59, -9.66, -9.94, -9.37, -8.45, -8.08, -6.79, -5.86, -2.79, -1.61, -0.57, 0.0, -0.95, -3.45, -4.43, -5.15, -5.06, -5.2, -5.2, -3.97, -2.41, -1.16, -1.2, -1.61, -2.5, -3.07, -2.68, -2.4, -1.26, 0.0, 0.0, 0.0, 0.0, 0.0, -0.76, -2.11, -3.38, -6.32, -9.92, -12.52, -14.13, -14.11, -13.41, -11.7, -9.1, -2.73, 2.4, 4.41, 4.41, 4.24, 4.52, 5.05, 5.09, 4.65, 4.03, 3.09, 3.09, 2.35, 3.22, 3.72, 3.72, 3.9, 4.29, 4.46, 4.37, 4.71, 4.5, 3.76, 2.31, 0.0, 0.0, 0.0, 0.0, 2.37, 1.38, 0.0, 0.0, 0.0, 0.0, -0.0, -0.0, 1.24, 1.2, 0.0, -0.53, -2.2, -4.4, -5.18, -6.05, -5.78, -5.38, -4.37, -2.9, -1.36, -10.88, -11.23, -11.44, -11.72, -10.59, -10.01, -9.66, -9.37, -8.78, -8.15, -7.44, -6.32, -3.45, -2.5, -1.24, -1.24, -1.2, -2.6, -4.09, -4.65, -3.72, -4.19, -5.44, -5.49, -4.22, -1.49, -0.61, -1.2, -1.9, -2.5, -3.45, -3.84, -2.79, -2.21, -0.89, -0.71, -1.33, -1.7, -3.91, -5.38, -8.53, -11.52, -13.15, -12.52, -11.9, -10.18, -8.46, -6.58, -2.0, 1.4, 3.72, 4.0, 4.24, 5.16, 5.64, 5.43, 4.81, 4.36, 3.69, 2.99, 2.18, 3.0, 3.72, 4.46, 5.43, 5.0, 4.83, 5.59, 6.23, 6.36, 5.99, 4.65, 2.28, 0.69, -0.59, -2.07, -2.9, -1.54, 0.0, -0.77, -0.69, 0.0, 0.0, -0.0, -0.0, 0.8, 0.63, 0.0, -1.8, -4.83, -6.2, -5.52, -5.86, -6.24, -5.0, -2.73, -1.94, -1.41, -10.88, -10.88, -11.44, -11.44, -11.16, -10.23, -10.01, -9.66, -9.02, -8.73, -8.0, -6.41, -3.07, -2.5, -2.15, -2.5, -2.79, -2.53, -3.53, -4.36, -5.44, -3.22, -2.99, -3.99, -3.69, -3.17, -1.66, -1.4, -2.23, -2.4, -3.32, -5.43, -7.69, -8.24, -7.15, -6.36, -6.0, -7.13, -8.9, -10.86, -11.52, -9.9, -7.31, -3.79, -2.35, -2.26, -1.55, 0.0, 0.73, 2.98, 2.98, 3.84, 4.0, 5.16, 5.34, 4.46, 3.72, 3.9, 3.91, 2.9, 2.31, 3.11, 3.72, 5.09, 5.69, 5.21, 4.46, 4.56, 5.94, 6.79, 5.4, 4.61, 4.1, 3.16, 0.0, -3.14, -5.09, -4.5, -2.22, -1.36, -0.63, 0.0, 0.0, 0.0, -0.65, -1.26, -1.58, -2.0, -4.71, -6.31, -5.78, -5.13, -5.21, -4.11, -2.79, -1.84, -1.23, -1.45, -10.88, -10.88, -11.23, -11.44, -11.44, -10.59, -10.59, -10.01, -9.08, -8.73, -7.72, -5.37, -2.4, -1.9, -1.9, -2.5, -3.07, -3.14, -3.53, -4.73, -7.9, -7.18, -6.17, -4.44, -3.77, -5.15, -5.15, -4.6, -3.74, -3.58, -2.68, -3.13, -5.16, -10.75, -11.99, -11.6, -10.49, -10.48, -11.52, -11.54, -9.9, -6.99, -2.51, 0.0, 0.0, 0.0, 0.0, 0.0, 0.71, 1.41, 1.41, 2.07, 3.45, 4.24, 3.83, 3.48, 2.98, 3.22, 3.09, 3.21, 2.31, 2.98, 4.46, 5.06, 4.83, 4.37, 3.69, 3.64, 3.72, 3.8, 2.95, 3.11, 3.73, 4.65, 3.61, 0.0, -3.14, -4.46, -2.29, -0.72, 0.0, -1.16, -2.0, -1.84, -2.68, -4.02, -4.93, -6.68, -6.88, -6.95, -6.32, -6.24, -4.65, -2.5, -1.86, -1.84, -0.61, 0.0, -10.65, -10.88, -10.88, -11.23, -11.72, -11.16, -10.88, -10.59, -9.66, -8.73, -7.23, -5.08, -2.23, -0.54, -1.27, -1.49, -2.5, -3.84, -4.12, -4.47, -6.35, -9.85, -10.86, -10.22, -9.36, -8.94, -9.67, -9.8, -8.79, -5.59, -3.13, -1.7, -2.4, -4.47, -10.73, -12.07, -12.49, -11.76, -9.88, -8.3, -7.4, -6.61, -6.36, -5.37, -4.99, -3.69, -2.25, -0.75, 0.0, 0.0, 0.0, 1.33, 2.53, 3.45, 3.14, 2.79, 2.73, 2.98, 2.35, 2.23, 2.26, 2.98, 2.73, 3.11, 2.8, 2.9, 2.9, 1.35, 0.66, 0.0, 0.0, 0.0, 0.7, 1.48, 1.54, 1.45, 0.0, -1.24, 0.0, 0.0, -0.63, -2.79, -5.06, -5.37, -5.69, -8.48, -10.01, -9.45, -8.32, -7.69, -8.18, -6.35, -2.5, -0.63, -0.57, 0.0, 0.7, 1.94, -10.65, -10.65, -10.65, -11.16, -11.16, -11.16, -10.88, -10.88, -10.01, -8.94, -7.48, -5.88, -2.8, -1.88, -1.99, -1.4, -1.84, -3.72, -4.22, -3.11, -1.88, -3.53, -7.69, -12.52, -12.51, -12.17, -12.21, -12.21, -9.77, -7.28, -5.94, -4.02, -3.95, -5.4, -8.67, -11.15, -12.07, -10.49, -8.34, -7.64, -6.4, -8.67, -11.64, -13.15, -11.77, -9.17, -5.13, -2.97, -1.47, -2.04, -0.7, 0.61, 2.53, 3.49, 3.48, 3.79, 3.72, 3.11, 2.9, 2.4, 2.26, 2.11, 1.27, 0.73, 1.33, 1.49, 1.45, 0.0, -0.66, -1.6, -1.58, -0.77, -1.62, -2.19, -2.28, -0.68, 1.52, 2.11, 1.47, 0.78, 0.0, -4.61, -6.63, -7.59, -8.18, -9.6, -10.38, -10.52, -9.49, -8.63, -6.36, -2.68, 0.0, 0.4, 1.0, 1.8, 2.48, 2.73, -10.3, -10.3, -10.59, -10.59, -10.59, -10.59, -10.88, -10.88, -10.59, -8.94, -7.76, -7.51, -7.08, -6.79, -4.84, -2.79, -3.07, -4.01, -3.11, -1.41, -0.7, -0.7, -2.15, -5.64, -10.28, -9.77, -8.8, -9.67, -9.36, -9.38, -10.52, -11.57, -11.62, -10.52, -9.11, -9.26, -10.23, -10.68, -9.16, -8.4, -9.33, -10.7, -12.18, -11.76, -11.13, -10.32, -10.38, -8.23, -5.64, -4.5, -2.99, 0.61, 3.14, 4.46, 4.81, 4.74, 4.29, 3.91, 2.99, 2.31, 2.18, 1.52, 0.0, 0.0, 1.24, 1.4, 0.74, 0.0, -0.7, -1.4, -0.76, -1.32, -2.25, -3.47, -2.76, -0.73, 0.0, 1.49, 1.56, 1.36, 1.51, -2.12, -4.75, -6.59, -6.98, -7.59, -8.11, -7.85, -6.64, -5.33, -3.07, 0.6, 1.7, 1.79, 2.5, 2.84, 2.48, 2.48, -10.3, -10.3, -10.59, -10.59, -11.16, -10.59, -10.59, -10.88, -10.59, -9.86, -8.82, -8.68, -9.01, -10.94, -10.14, -8.4, -8.0, -8.4, -7.37, -6.36, -5.29, -4.15, -3.16, -3.74, -4.8, -7.13, -6.18, -7.59, -9.69, -10.79, -12.47, -13.86, -13.86, -11.62, -9.83, -7.08, -6.0, -5.6, -7.81, -8.37, -9.83, -10.32, -4.52, -1.7, -2.24, -4.88, -6.66, -6.07, -5.09, -2.51, -0.54, 1.58, 3.14, 4.46, 4.36, 4.56, 3.91, 3.15, 2.23, 1.52, 0.73, 0.71, 0.0, 0.65, 1.58, 1.16, 0.69, 0.67, 0.0, -0.65, -0.73, -2.01, -2.82, -2.71, -1.45, -0.71, -1.45, -1.55, -1.43, -0.68, 0.0, 0.68, -1.19, -4.09, -4.73, -4.41, -4.75, -4.11, -2.84, -3.13, -1.2, 0.63, 1.49, 1.86, 2.17, 1.84, 1.76, 1.8, -10.3, -10.3, -10.01, -10.88, -11.23, -10.88, -10.88, -10.88, -10.8, -10.41, -9.76, -9.48, -9.1, -9.3, -9.54, -10.49, -11.61, -11.56, -11.56, -11.4, -11.15, -10.28, -8.01, -4.52, -3.13, -5.84, -7.81, -8.34, -10.35, -12.58, -12.96, -12.94, -11.18, -11.06, -10.93, -10.28, -8.99, -7.64, -4.52, -3.82, -3.58, -3.07, 1.26, 2.98, 1.58, -0.0, -0.0, -0.0, -0.0, -0.0, -0.0, 1.2, 1.88, 2.79, 3.9, 3.69, 2.9, 1.47, 0.77, 0.0, 0.0, 0.0, 0.7, 1.24, 1.58, 1.84, 2.2, 2.26, 0.7, -0.66, -2.26, -2.82, -2.82, -2.1, -1.39, -1.39, -2.06, -3.2, -4.0, -4.01, -3.41, -1.38, 0.0, -1.23, -2.21, -2.53, -2.79, -2.73, -1.8, -1.84, -2.15, -1.2, 1.2, 1.86, 0.8, 0.53, 0.59, 1.16, -10.3, -10.06, -9.72, -10.88, -11.23, -11.44, -11.23, -10.88, -10.8, -10.51, -10.41, -9.86, -9.5, -8.73, -7.17, -7.61, -7.6, -10.0, -11.39, -11.13, -8.33, -6.26, -5.81, -4.15, -2.23, -1.7, -2.5, -1.95, -3.07, -5.73, -8.05, -4.43, -2.68, -4.52, -9.11, -9.83, -8.97, -4.27, -1.7, -0.0, 0.65, 1.2, 2.8, 1.86, 0.71, 0.61, 0.76, 1.74, 2.21, -0.0, -1.26, -0.89, 0.0, 0.61, 1.41, 1.36, 1.52, 1.52, 0.0, -0.69, 0.0, 0.0, 1.24, 0.89, 0.95, 1.88, 2.88, 3.09, 1.52, 0.0, -2.75, -3.46, -3.61, -2.28, -2.28, -2.41, -3.11, -3.8, -5.46, -6.29, -5.3, -3.11, -0.75, 0.74, 0.0, -0.61, -1.8, -2.73, -2.73, -2.66, -3.38, -2.21, 0.89, 1.79, 0.6, 0.0, 0.0, 0.57, -10.3, -10.06, -9.72, -10.88, -11.23, -11.44, -11.23, -11.16, -10.8, -10.87, -10.87, -10.51, -9.94, -9.08, -7.93, -6.69, -5.44, -6.23, -7.76, -8.8, -6.56, -4.69, -4.11, -2.98, -1.98, -1.0, 0.0, 1.49, 2.15, -0.0, -0.71, 0.8, 2.6, 0.0, -1.34, -2.24, -2.17, 0.0, 0.63, -0.0, -0.0, -1.24, -1.7, -1.34, -1.26, -2.86, -3.22, -2.86, -2.21, -2.6, -3.6, -3.97, -3.58, -3.07, -2.15, -1.66, 0.0, 0.95, 0.57, 0.0, 0.0, 0.89, 0.89, -0.0, 0.0, 0.63, 1.88, 2.51, 2.07, 0.7, 0.0, -0.73, -1.52, -2.12, -3.15, -3.85, -3.85, -4.6, -5.62, -6.44, -4.87, -4.46, -4.31, -3.76, 0.0, 0.0, -1.52, -3.43, -3.43, -4.02, -3.97, -1.8, 0.54, 1.24, 0.54, 0.0, 0.6, 0.6, -10.65, -10.3, -9.72, -10.88, -11.23, -11.23, -11.23, -11.16, -10.8, -10.8, -10.8, -10.8, -10.59, -10.23, -9.17, -7.96, -6.33, -5.08, -5.1, -6.01, -6.01, -4.47, -3.22, -3.22, -2.61, -2.6, -1.34, 0.63, 2.23, 2.86, 2.23, 1.88, 1.58, 1.79, 2.17, 2.4, 1.86, 1.7, 0.0, -1.26, -3.07, -4.73, -7.6, -6.26, -3.13, -5.26, -6.55, -8.67, -8.24, -7.31, -6.88, -8.05, -9.83, -9.77, -8.67, -6.36, -2.86, 0.0, 0.61, 0.45, -0.0, 0.71, -0.0, -0.71, -1.9, -0.95, 0.0, 1.7, 2.24, 3.13, 3.13, 2.24, 1.26, 0.0, -1.55, -3.7, -3.7, -3.8, -4.37, -3.69, -4.01, -5.59, -7.09, -6.94, -2.76, -2.28, -2.23, -2.2, -2.51, -2.48, -2.72, -0.61, 0.0, 0.59, 0.59, 0.53, 0.6, 0.6, -10.65, -10.3, -9.72, -10.65, -10.88, -10.88, -10.88, -10.88, -10.8, -10.8, -11.16, -10.88, -10.88, -10.65, -10.36, -9.5, -8.24, -6.33, -5.46, -5.08, -5.72, -5.29, -4.63, -4.44, -4.08, -3.84, -3.09, -1.34, 0.57, 1.61, 1.2, 1.16, 0.8, 0.95, 2.24, 1.9, 0.8, 0.6, 0.0, -2.4, -3.82, -7.6, -7.6, -2.54, -0.0, 0.0, -1.34, -2.68, -6.17, -7.81, -9.16, -9.83, -8.89, -5.81, -4.47, -4.47, -3.95, -1.88, 0.0, 0.0, -0.0, -0.0, -0.0, -1.49, -2.5, -2.23, -1.34, 0.0, 1.34, 3.51, 4.73, 3.98, 3.13, 1.49, 0.0, -0.7, -0.59, -0.66, -1.27, -2.0, -3.07, -4.65, -5.52, -4.87, -4.73, -5.28, -3.15, -0.63, 0.0, 0.0, 0.0, 0.0, 0.0, 0.0, 0.73, 0.53, 0.0, 0.0, -10.36, -10.3, -9.72, -10.3, -10.88, -10.88, -10.88, -10.65, -10.88, -10.88, -10.88, -11.23, -11.23, -10.94, -10.69, -10.12, -9.21, -7.96, -6.96, -6.33, -6.33, -6.31, -5.64, -5.2, -4.6, -4.03, -2.84, -1.0, 0.0, 0.6, 0.89, 1.2, 1.26, 1.34, 2.24, 1.86, 0.6, 0.0, -0.0, -1.9, -3.07, -2.4, -0.0, 0.8, 2.53, 2.8, 2.68, 0.45, 0.0, -1.7, -3.47, -4.02, -2.68, -1.34, -0.45, -1.79, -2.6, -2.23, -0.6, -0.45, -0.63, -0.0, -0.0, -0.0, -1.79, -2.24, -1.79, -0.89, 1.34, 3.45, 3.72, 3.07, 2.6, 1.86, 0.95, 1.26, 2.5, 1.88, 0.54, -0.57, -1.9, -2.53, -3.64, -3.91, -2.99, -1.55, -1.94, 0.0, 1.33, 1.27, 0.69, -0.64, 0.0, 0.61, 0.69, 0.0, 0.0, 0.0, -10.36, -10.36, -10.06, -10.3, -10.65, -10.3, -10.3, -10.65, -10.65, -10.88, -11.23, -11.23, -11.23, -10.94, -10.99, -10.4, -9.82, -8.87, -7.96, -7.33, -6.7, -6.29, -6.27, -4.98, -3.39, -1.73, -0.57, 0.0, 0.0, 0.0, 0.0, 0.0, 0.63, 1.34, 2.68, 2.68, 1.26, -0.0, -0.0, -0.71, -1.49, -0.61, -0.0, -0.0, 0.95, 2.0, 1.58, 1.79, 2.24, 2.24, 0.89, 0.0, 0.45, 1.79, 1.79, 0.0, 0.0, 0.0, 0.0, -0.0, 0.0, 0.89, 1.34, 0.89, 0.0, 0.0, -0.63, -0.89, 0.95, 2.15, 1.4, -0.0, 0.0, 0.0, 0.0, 2.68, 3.82, 4.0, 2.5, 0.8, 0.0, -1.24, -1.84, -2.6, -2.35, -0.59, 0.0, 1.84, 0.66, 0.0, -0.69, 0.0, 0.0, 0.0, 0.0, 0.0, -0.59, -0.59, -10.36, -10.36, -10.3, -10.3, -10.3, -10.3, -10.3, -10.65, -10.65, -10.94, -10.94, -11.23, -10.94, -11.28, -10.99, -10.12, -9.82, -9.21, -8.22, -7.32, -6.27, -6.27, -5.62, -3.39, -1.14, 0.0, 0.0, 0.0, 0.0, -0.56, -1.18, -1.16, -0.53, 1.2, 3.53, 2.91, 1.88, -0.0, -0.71, -0.71, -0.0, -0.0, -0.76, -0.71, -0.0, -0.0, 0.0, 1.34, 1.79, 2.68, 3.58, 3.58, 2.68, 1.79, 1.34, 0.0, 0.0, 1.34, 1.34, 0.0, 0.0, 0.0, 1.34, 2.68, 3.2, 1.2, 0.0, -1.79, -0.95, -0.0, -0.65, -1.86, -1.79, -1.7, -0.0, 2.12, 3.07, 3.14, 2.79, 1.86, 0.63, 0.0, -1.33, -2.66, -1.8, -1.84, -2.51, 0.0, -0.67, -2.31, -1.47, 0.0, 0.0, -1.19, -1.36, -0.72, -0.63, -0.63, -10.09, -10.36, -10.3, -9.72, -10.3, -10.3, -10.3, -10.65, -10.69, -10.94, -10.94, -10.94, -10.94, -11.28, -10.94, -10.18, -9.8, -9.82, -8.23, -5.83, -4.62, -5.28, -5.17, -3.88, -2.31, -1.09, -1.67, -1.44, -2.31, -2.71, -2.75, -2.82, -2.23, 0.0, 2.6, 3.88, 2.58, 0.51, -0.61, -0.65, -0.0, 0.54, -0.0, -0.0, -0.0, 0.0, 0.0, 0.0, 1.79, 2.0, 2.68, 2.68, 2.68, 2.24, 1.79, 1.34, 0.0, 0.0, 0.0, 0.0, 0.0, 0.0, 1.79, 1.86, 1.9, 1.26, -0.45, -2.0, -1.86, -1.2, -1.6, -1.16, -0.59, -0.53, -0.32, 0.0, 0.0, 0.0, 0.61, 1.2, 0.0, -1.16, -1.8, -2.86, -3.48, -5.09, -7.07, -6.98, -5.38, -4.37, -2.12, -0.73, -1.36, -2.04, -1.88, -1.3, -0.61, -0.61, -9.8, -10.09, -9.77, -9.72, -10.3, -10.3, -10.3, -10.65, -10.69, -10.94, -11.28, -10.94, -11.28, -11.28, -10.94, -9.77, -9.8, -9.77, -7.9, -6.05, -5.29, -5.73, -6.25, -5.95, -6.88, -6.42, -5.13, -5.09, -5.09, -5.1, -4.47, -4.11, -3.35, -0.89, 1.26, 2.53, 2.23, 1.11, -0.0, -0.0, 0.59, 1.6, 1.84, 1.2, 0.8, 0.0, 0.0, 1.34, 2.4, 2.4, 2.4, 2.68, 2.68, 2.24, 0.89, 0.63, 0.0, 0.0, -0.63, -1.26, 0.0, 0.0, 1.58, 2.53, 1.24, 0.57, -0.0, -1.2, -0.65, 0.7, 0.63, 1.54, 1.55, 0.0, -2.12, -3.14, -3.45, -3.14, -1.2, 0.0, 0.0, -0.51, -1.33, -2.53, -3.6, -5.02, -5.02, -4.11, -5.69, -4.12, -3.48, -3.6, -3.11, -2.72, -2.44, -1.35, -0.67, -0.67, -9.8, -10.09, -9.77, -10.06, -10.06, -10.3, -10.65, -10.36, -10.69, -10.99, -10.99, -10.99, -10.99, -11.28, -10.94, -10.4, -9.8, -9.46, -9.3, -8.93, -8.66, -8.2, -8.22, -8.3, -9.48, -8.85, -7.59, -6.64, -6.32, -5.65, -5.29, -4.55, -3.39, -1.34, -0.0, 1.0, 1.16, 1.16, 0.61, -0.0, 0.61, 1.61, 1.84, 1.88, 1.24, -0.0, 0.0, 1.58, 2.8, 2.8, 2.8, 2.68, 2.24, 1.79, 1.34, 0.63, 0.6, 0.0, -1.34, -0.89, -0.0, 1.2, 1.13, 1.4, 0.57, -0.0, -0.0, -0.0, 1.49, 3.49, 5.3, 5.41, 2.93, 0.0, -3.95, -7.68, -8.25, -6.0, -3.6, -1.9, -0.65, 0.0, 0.0, -0.57, -2.17, -2.68, -2.68, -2.17, -2.21, -3.14, -4.09, -5.3, -4.5, -2.8, -2.48, -1.8, -0.63, -0.63, -9.8, -9.8, -9.77, -10.06, -9.72, -10.3, -10.65, -10.69, -10.69, -10.99, -10.99, -10.99, -10.99, -10.99, -10.99, -10.72, -9.8, -9.46, -9.72, -10.36, -10.12, -9.5, -9.21, -9.19, -9.5, -8.87, -7.33, -6.67, -5.69, -4.71, -3.88, -3.44, -3.13, -1.34, -0.0, -0.0, -0.0, -0.0, -0.0, -0.0, 0.54, 1.88, 2.53, 2.53, 2.15, 1.26, 0.95, 1.2, 2.8, 2.8, 2.68, 2.24, 1.79, 1.34, 0.0, 0.0, 0.45, 0.6, -0.0, -0.0, 0.54, 1.2, 1.24, 0.57, -0.0, 0.6, -0.0, 0.6, 1.7, 2.68, 2.86, 3.91, 2.51, 1.2, -6.54, -10.18, -10.88, -9.68, -6.42, -3.82, -1.9, -0.54, 0.0, 0.0, -0.8, -1.2, -1.2, -1.86, -2.51, -2.48, -4.75, -5.72, -3.97, -2.4, -1.6, -1.16, -0.59, -0.59, -9.8, -9.8, -9.8, -10.06, -9.72, -10.3, -10.36, -10.69, -10.66, -10.99, -10.99, -10.99, -10.99, -10.99, -10.99, -10.72, -10.12, -9.77, -10.09, -9.82, -9.5, -8.86, -8.23, -8.58, -8.58, -8.87, -7.96, -6.7, -5.1, -3.2, -2.4, -2.24, -1.79, -0.89, 0.0, -0.0, -0.0, -0.0, -0.0, -0.0, 0.57, 1.9, 2.21, 2.79, 3.07, 2.5, 1.9, 2.8, 2.8, 2.68, 2.24, 1.79, 1.34, 1.34, 0.0, 0.0, 0.6, 0.53, 0.85, 1.24, 1.49, 0.71, 0.6, 0.63, 0.6, 0.95, 0.63, -0.0, -0.0, 0.0, 0.0, 0.89, 1.2, 0.0, -3.13, -7.92, -9.68, -9.45, -7.63, -4.88, -3.53, -1.86, -1.24, -1.24, -1.24, -1.58, -1.9, -2.53, -2.48, -1.94, -4.02, -4.43, -3.43, -2.23, -1.88, -1.88, -1.8, -1.8, -9.8, -9.8, -9.8, -9.77, -9.72, -10.3, -10.36, -10.69, -10.99, -10.99, -10.99, -10.99, -10.99, -10.71, -11.03, -10.72, -9.8, -10.09, -9.8, -9.82, -9.22, -7.93, -7.55, -7.59, -7.6, -7.96, -7.96, -6.97, -5.72, -3.22, -1.58, -0.89, -0.89, -0.45, 0.0, 0.0, 0.0, -0.0, -0.0, -0.0, 0.6, 1.24, 2.15, 2.5, 2.79, 2.79, 2.21, 2.4, 2.68, 2.24, 1.79, 1.34, 1.34, 1.34, 0.0, 0.0, 0.45, -0.0, -0.0, 0.95, 1.2, -0.0, -0.0, -0.0, 0.95, 1.2, 0.89, 0.0, 0.0, 0.0, -0.45, -0.89, 0.0, 0.0, -0.45, -3.13, -6.36, -6.99, -6.4, -4.3, -3.98, -2.91, -2.68, -2.5, -2.68, -2.68, -2.79, -2.79, -2.51, -0.59, -1.35, -0.63, -1.13, -1.88, -2.68, -3.07, -2.51, -2.51, -9.8, -9.8, -9.8, -9.8, -9.77, -9.72, -10.36, -10.69, -10.99, -10.99, -10.99, -10.99, -10.99, -11.03, -11.03, -10.43, -10.12, -10.09, -9.8, -10.13, -9.49, -8.57, -7.53, -6.9, -6.92, -6.96, -7.33, -6.71, -6.08, -4.73, -2.22, -1.0, -0.57, -0.6, 0.0, 0.0, 0.0, 0.0, 0.0, 0.0, -0.0, 0.95, 1.86, 2.4, 2.5, 2.5, 1.9, 2.12, 2.12, 1.7, 1.6, 0.0, 0.89, 1.34, 1.34, 1.79, 1.34, 0.63, -0.0, -0.0, 0.0, 0.0, -0.45, -0.0, 1.2, 1.2, 0.8, 0.63, -0.0, 0.0, -1.7, -1.88, -0.73, 0.0, 0.63, 0.59, 0.0, -1.88, -3.79, -3.14, -3.6, -3.6, -3.6, -3.6, -3.2, -3.07, -2.68, -2.15, -1.26, 1.26, 3.6, 2.44, 1.76, 0.0, -1.9, -2.68, -2.53, -2.53, -9.8, -9.8, -9.8, -9.8, -9.77, -9.72, -9.72, -10.69, -10.72, -10.72, -10.72, -10.72, -10.99, -11.03, -11.03, -10.75, -10.4, -9.8, -9.8, -10.13, -9.84, -9.21, -8.18, -7.53, -7.13, -6.92, -6.96, -6.98, -6.35, -5.45, -3.84, -2.61, -1.13, -1.2, -0.57, -0.42, -0.6, -0.4, -0.63, -0.45, 0.0, 0.89, 1.7, 2.12, 2.17, 2.17, 2.17, 2.12, 2.12, 1.86, 1.86, 1.86, 1.26, 2.24, 2.24, 2.24, 2.24, 0.45, -0.0, -1.2, -1.34, -0.63, 0.0, 0.0, 0.63, 0.63, 1.2, 0.95, -0.0, -0.0, -1.7, -2.53, -1.47, 0.0, 2.35, 4.28, 2.8, -0.59, -2.84, -3.16, -3.49, -4.27, -4.27, -4.11, -3.82, -2.91, -2.15, -1.49, 0.0, 1.79, 3.07, 4.12, 4.07, 2.66, 0.57, 0.0, -0.53, -0.53, -9.8, -9.8, -9.8, -9.77, -9.77, -9.72, -9.72, -10.36, -10.4, -10.72, -10.72, -10.72, -10.72, -11.03, -10.75, -10.75, -10.72, -9.8, -9.8, -9.82, -9.5, -9.49, -8.57, -8.18, -7.53, -7.13, -6.94, -6.71, -6.35, -5.72, -5.1, -4.73, -3.85, -2.82, -2.2, -1.58, -0.99, -1.0, -1.2, -0.54, -0.57, 0.0, 1.2, 1.79, 2.24, 2.24, 1.79, 1.7, 1.49, 1.58, 1.9, 1.88, 2.21, 2.79, 1.58, 1.26, 2.4, 1.79, 0.89, -0.63, -2.12, -1.79, -0.63, 0.0, 0.0, -0.0, -0.0, -0.0, -0.95, -1.34, -2.17, -3.07, -2.73, -1.41, 1.45, 4.46, 2.88, 0.0, -3.07, -3.72, -3.78, -4.37, -4.27, -4.3, -3.98, -3.39, -2.4, -0.6, 1.2, 2.24, 2.17, 2.21, 3.43, 3.32, 2.6, 1.73, 1.23, 1.23, -9.8, -9.8, -9.8, -9.77, -10.06, -9.72, -9.46, -9.77, -10.4, -10.4, -10.4, -10.72, -10.72, -11.03, -10.43, -10.43, -10.43, -10.12, -9.5, -9.5, -9.5, -9.22, -8.85, -8.18, -7.76, -7.53, -7.16, -7.33, -6.7, -5.72, -5.1, -5.1, -4.47, -3.85, -3.04, -2.18, -1.73, -1.58, -1.27, -1.13, -0.53, 0.0, 1.26, 1.86, 2.15, 2.4, 1.34, 1.2, 1.26, 1.24, 1.61, 2.21, 2.79, 2.84, 3.16, 1.24, 2.4, 2.24, 1.34, -0.0, -1.7, -2.17, -1.34, 0.0, 0.0, 0.0, -0.63, -1.2, -1.7, -2.24, -2.17, -3.07, -4.09, -3.49, -1.33, 0.0, 0.59, 0.0, -2.6, -3.6, -3.48, -6.28, -6.57, -3.6, -3.53, -3.13, -1.34, 0.45, 1.86, 1.49, 1.2, 0.57, 2.0, 1.88, 2.04, 2.04, 1.88, 1.88, -9.19, -9.19, -9.48, -10.06, -9.72, -9.72, -9.46, -9.77, -10.4, -10.4, -10.4, -10.72, -10.43, -10.75, -9.82, -9.8, -9.8, -10.12, -9.21, -9.21, -9.21, -8.85, -8.85, -8.85, -8.18, -7.53, -7.55, -7.59, -6.71, -6.08, -5.36, -4.46, -4.47, -3.84, -3.45, -2.8, -2.16, -1.7, -1.73, -1.76, -1.13, 0.0, 0.57, 0.6, 1.26, 2.68, 1.2, -0.0, -0.0, 1.24, 1.58, 1.9, 2.53, 2.84, 3.16, 2.84, 1.26, 1.6, 1.7, 0.63, -0.6, -1.7, -1.34, -0.89, 0.0, -0.0, -0.0, -0.63, -1.26, -2.12, -2.24, -2.53, -2.98, -5.46, -6.64, -4.46, -1.84, 0.0, -1.26, -3.07, -3.49, -6.28, -6.32, -5.06, -2.68, -1.79, -0.0, 0.63, 0.89, 0.0, 0.0, 0.0, 0.0, 1.08, 1.19, 1.3, 1.3, 1.3, -9.48, -9.48, -9.48, -9.72, -9.46, -9.13, -9.13, -9.77, -9.8, -10.4, -10.4, -10.4, -10.43, -10.43, -10.12, -9.19, -9.48, -9.5, -9.21, -9.21, -8.86, -8.58, -8.58, -8.2, -8.2, -7.93, -7.55, -7.32, -6.97, -6.35, -5.09, -4.46, -3.83, -4.08, -3.84, -3.42, -2.77, -2.59, -2.16, -1.7, -1.23, -0.51, 0.0, 0.54, 1.58, 1.6, 0.95, 0.0, 0.0, 0.89, 1.34, 1.34, 2.4, 2.5, 2.79, 3.14, 2.79, 3.07, 1.86, 1.26, -0.0, -1.2, -1.2, -1.26, -0.0, 0.6, 0.6, -0.0, -0.0, -1.7, -2.68, -2.53, -1.6, -2.99, -7.27, -8.32, -4.74, -1.8, -1.16, -1.88, -2.79, -6.23, -6.32, -5.71, -4.12, -1.24, 0.0, -0.0, -0.0, -0.0, -0.63, -0.45, -0.57, 0.0, 0.0, 0.61, 0.61, 0.61, -9.17, -9.17, -9.17, -9.46, -9.13, -8.85, -9.13, -9.77, -9.8, -10.12, -10.12, -10.4, -10.43, -10.43, -10.4, -9.5, -9.17, -9.19, -9.21, -8.86, -8.86, -8.58, -8.58, -8.2, -8.2, -8.2, -7.55, -7.32, -6.33, -5.7, -5.08, -4.69, -4.03, -4.05, -3.83, -3.4, -3.2, -2.75, -2.77, -2.32, -1.7, -1.23, -0.59, 0.0, 0.0, 0.0, 0.0, 0.0, 0.57, 1.24, 1.24, 1.24, 1.58, 2.24, 2.4, 3.07, 3.07, 3.2, 2.79, 1.24, -0.0, -0.99, -1.26, -1.26, -0.0, 0.63, 0.6, -0.0, 0.0, -1.26, -3.07, -3.39, -1.84, 0.0, -1.45, -5.3, -6.79, -4.56, -2.73, -2.0, -2.84, -3.6, -5.49, -5.37, -4.47, -3.0, -1.33, -0.0, -0.0, 1.0, 1.2, 1.2, 0.63, 0.0, 0.0, 0.0, 0.0, 0.0, -9.46, -9.46, -9.46, -9.13, -8.85, -8.85, -9.17, -9.77, -9.8, -9.8, -10.12, -10.12, -10.12, -10.43, -10.4, -9.8, -9.19, -9.19, -9.21, -9.21, -8.85, -8.85, -8.58, -8.2, -8.2, -7.8, -7.55, -7.59, -6.31, -5.72, -5.7, -5.46, -5.08, -4.44, -4.03, -3.37, -3.37, -3.18, -2.92, -2.75, -2.32, -1.16, -1.19, -0.55, 0.0, 0.0, 0.0, 0.0, 0.57, 1.13, 1.13, 1.16, 1.0, 1.24, 1.26, 2.6, 2.91, 3.07, 2.79, 1.27, -0.0, -0.71, -0.57, -0.6, -0.0, 1.34, 0.89, 0.0, -1.6, -1.49, -2.5, -3.13, -2.6, 0.0, 0.0, -1.56, -4.6, -4.43, -3.43, -3.32, -2.44, -2.23, -1.61, -2.84, -2.96, -2.89, -2.26, -1.6, -0.0, 2.53, 4.46, 3.07, 2.68, 2.4, 0.59, 0.57, 1.23, 1.23, -8.85, -8.85, -8.85, -8.85, -9.13, -9.17, -9.17, -9.48, -9.8, -9.8, -9.8, -9.8, -10.12, -10.12, -10.12, -9.8, -9.8, -9.5, -9.5, -9.5, -9.22, -9.49, -8.85, -8.46, -7.8, -7.53, -7.8, -7.59, -6.71, -6.05, -6.35, -6.08, -5.72, -4.66, -4.0, -3.35, -3.35, -2.86, -2.71, -2.73, -2.12, -1.65, -1.14, -0.59, 0.0, 0.0, 0.0, 0.61, 0.61, 0.55, 0.55, 0.57, 0.59, 0.53, 0.57, 1.2, 1.34, 2.4, 2.21, 1.16, -0.0, -0.6, -0.0, -0.0, 0.95, 1.6, 1.34, 0.0, -0.95, -1.26, -1.2, -1.34, -2.68, -2.84, -1.52, -0.72, -1.41, -1.58, -1.2, -0.63, -0.69, 0.0, 0.0, 0.0, -1.14, -1.75, -2.3, -2.86, -0.65, 3.53, 6.4, 4.52, 3.39, 3.13, 3.39, 2.51, 2.48, 2.48, -8.85, -8.85, -8.85, -8.85, -9.17, -9.17, -9.48, -9.48, -9.8, -9.8, -9.8, -9.8, -10.12, -10.12, -9.8, -9.8, -9.19, -9.5, -9.5, -9.5, -9.22, -9.49, -8.83, -8.57, -7.53, -7.76, -7.53, -7.57, -7.6, -6.97, -6.7, -6.08, -5.08, -4.44, -4.0, -4.0, -3.32, -2.83, -2.83, -2.33, -2.23, -1.63, -1.12, -0.58, 0.0, 0.0, 0.0, 0.54, 0.54, 0.61, 0.55, 0.0, 0.0, 0.0, 0.0, 0.6, 0.95, 1.34, 1.86, 1.24, -0.0, 0.0, 0.0, 0.63, 0.8, 0.57, 0.6, -0.0, -0.0, -0.95, -0.0, -0.0, -2.12, -4.73, -5.52, -3.02, 0.0, 1.33, 1.8, 1.36, 0.69, 0.0, 0.0, 0.0, -0.69, -1.71, -1.69, -2.35, 0.0, 3.98, 4.73, 3.82, 3.32, 2.63, 2.63, 3.14, 3.16, 3.16, -8.53, -8.53, -8.56, -8.87, -9.17, -9.17, -9.48, -9.19, -9.8, -9.8, -9.8, -9.8, -9.8, -9.8, -9.5, -9.19, -9.19, -9.21, -9.5, -9.5, -9.5, -8.85, -8.85, -8.57, -8.18, -8.18, -7.76, -7.55, -7.59, -7.33, -6.33, -5.72, -5.08, -4.44, -4.44, -3.97, -3.97, -3.49, -2.8, -2.3, -1.69, -1.09, -0.57, 0.0, 0.0, 0.0, 0.0, 0.0, 0.0, 0.0, 0.0, 0.0, 0.0, 0.0, 0.0, 0.0, 0.0, 0.63, 0.89, 0.89, -0.0, 0.0, 0.0, 0.63, 0.63, -0.0, -0.0, -0.0, -0.57, -0.57, -0.57, -0.89, -1.49, -4.46, -5.41, -2.31, 1.47, 4.4, 4.6, 2.95, 0.0, -0.69, -1.32, -1.36, -1.36, -1.71, -1.67, -0.67, 2.4, 4.43, 3.98, 3.53, 2.68, 2.24, 2.24, 2.0, 2.79, 2.79, -8.56, -8.56, -8.56, -9.17, -9.17, -9.17, -9.48, -9.19, -9.5, -9.8, -9.82, -9.82, -9.8, -9.5, -9.5, -9.19, -8.87, -9.21, -9.21, -9.21, -9.21, -8.86, -8.85, -8.85, -8.18, -8.18, -7.76, -7.55, -7.32, -6.96, -6.33, -5.7, -5.32, -4.66, -4.42, -3.97, -3.97, -3.49, -3.49, -2.83, -1.69, -1.09, -0.56, 0.0, 0.0, 0.0, 0.0, 0.0, 0.0, -0.59, -0.54, -0.55, 0.0, 0.0, 0.0, 0.0, 0.0, 0.0, 0.63, 0.89, 0.89, 1.2, 0.63, 0.63, 0.45, 0.0, -0.0, -0.0, -0.0, -0.0, -0.6, -0.63, 0.0, 0.0, -0.75, -0.77, 0.73, 3.02, 2.93, 0.68, 0.0, -1.4, -1.3, -1.35, -1.19, -0.64, -0.69, 0.0, 3.13, 3.58, 3.53, 3.09, 2.17, 1.7, 1.7, 1.49, 2.15, 2.15, -8.56, -8.56, -8.87, -9.17, -9.17, -9.17, -9.48, -9.19, -9.5, -9.21, -9.82, -9.82, -9.8, -9.5, -9.19, -9.19, -8.87, -9.21, -9.5, -9.21, -8.86, -8.86, -8.58, -8.2, -8.2, -7.53, -7.76, -7.53, -7.57, -6.94, -6.33, -6.34, -5.7, -5.29, -4.63, -4.63, -4.16, -3.97, -3.49, -2.83, -2.21, -1.71, -1.1, 0.0, 0.0, 0.0, -0.56, -0.57, -1.04, -1.05, -1.07, -1.08, -0.57, -0.59, 0.0, 0.0, 0.0, 0.0, 0.0, 0.89, 0.89, 1.34, -0.0, -0.0, 0.0, 0.45, 1.26, 1.24, 0.57, -0.0, -0.0, -0.0, 0.95, 1.98, 1.56, 0.0, -1.47, -2.12, -2.28, -2.13, -1.39, -0.69, -0.61, -1.11, -0.57, 0.0, 0.0, 1.8, 3.6, 3.07, 2.68, 2.21, 1.9, 1.24, 0.57, 0.57, 0.54, 1.58, -8.87, -8.87, -8.87, -9.17, -9.17, -9.17, -9.48, -9.19, -9.5, -9.21, -9.21, -9.21, -9.5, -9.5, -9.19, -9.19, -8.58, -9.21, -9.21, -8.86, -8.86, -8.86, -8.22, -8.2, -8.2, -7.8, -7.53, -7.53, -7.13, -6.94, -6.7, -6.33, -5.69, -5.69, -5.26, -4.6, -4.6, -3.94, -3.49, -3.35, -2.89, -2.23, -2.29, -0.7, 0.0, 0.0, -1.09, -1.63, -1.8, -1.67, -1.16, -1.19, -1.23, -1.13, -0.51, -0.53, 0.0, 0.0, 0.0, 0.0, 0.63, 0.89, 0.0, 0.0, 0.0, 0.89, 1.26, 1.24, 0.8, 0.4, -0.0, -0.0, 0.45, 1.23, 2.25, 2.21, -0.63, -4.56, -6.29, -5.6, -3.46, -1.36, -0.64, -0.63, 0.0, 0.59, 1.23, 2.48, 2.48, 1.8, 1.84, 1.16, 0.61, 0.65, 0.0, 0.0, 0.0, 0.54, -8.56, -8.56, -8.87, -9.17, -9.17, -9.17, -9.48, -9.19, -9.5, -9.21, -9.21, -9.21, -9.5, -9.5, -9.5, -8.58, -8.58, -9.19, -8.59, -8.59, -8.59, -8.59, -8.22, -7.95, -8.2, -7.55, -7.55, -7.55, -7.13, -6.92, -6.29, -6.33, -6.08, -5.69, -5.69, -5.26, -4.6, -3.94, -3.97, -3.32, -2.86, -2.89, -2.75, -2.32, -1.47, -1.16, -1.71, -2.29, -2.36, -1.7, -1.73, -1.08, -1.23, -1.27, -1.13, -0.61, -0.53, 0.0, 0.0, 0.0, 0.0, 0.63, 0.89, 0.0, 0.0, 0.0, 0.6, 0.8, 0.6, 0.63, -0.0, -0.0, -0.45, 0.0, 1.84, 5.09, 3.88, 0.0, -3.69, -4.8, -3.47, -1.88, -0.61, 0.0, 0.59, 1.27, 1.23, 1.35, 1.19, 0.7, 0.63, 0.57, 0.0, 0.0, 0.0, -0.65, -0.61, 0.0, -8.56, -8.56, -8.87, -8.87, -9.17, -9.17, -9.17, -9.19, -9.5, -9.5, -9.21, -9.21, -9.5, -9.5, -9.19, -8.58, -8.58, -9.19, -9.21, -8.87, -8.59, -8.22, -8.22, -8.22, -7.55, -7.55, -7.55, -6.9, -6.67, -6.5, -6.53, -6.31, -6.07, -5.92, -5.69, -5.26, -4.6, -3.94, -3.94, -3.49, -3.32, -2.86, -2.92, -2.96, -3.42, -2.26, -2.26, -2.16, -1.73, -1.57, -1.23, -1.23, -1.11, -1.27, -1.13, -1.16, -0.61, -0.54, 0.0, 0.0, 0.0, 0.0, 0.0, 0.0, 0.0, 0.0, 0.0, 1.34, 0.63, 0.63, -0.0, -0.95, -1.34, -1.2, 0.0, 2.6, 4.71, 3.51, 0.61, -0.66, -1.61, -0.51, 0.0, 0.0, 0.0, 0.0, 0.0, 0.0, 0.0, 0.0, 0.0, 0.0, 0.0, -0.59, -0.61, -1.16, -1.16, -1.16, -8.24, -8.24, -8.87, -8.87, -9.17, -9.17, -9.17, -9.19, -9.19, -9.5, -9.21, -9.5, -9.5, -9.19, -8.87, -8.87, -8.58, -9.5, -9.21, -8.87, -8.59, -7.96, -8.22, -8.22, -7.83, -7.31, -7.31, -6.9, -6.5, -6.27, -6.27, -6.29, -6.06, -5.89, -5.67, -5.26, -5.04, -4.6, -3.94, -3.94, -3.49, -3.32, -3.35, -3.37, -3.37, -3.37, -2.26, -1.67, -1.07, -1.08, -1.11, -1.11, -1.13, -1.13, -1.13, -1.16, -0.61, -0.65, 0.0, 0.0, 0.0, 0.0, 0.0, 0.0, 0.0, 1.79, 2.24, 1.79, 0.89, -0.0, -0.6, -1.49, -1.6, -1.79, -1.6, -0.76, 0.0, 2.28, 2.97, 2.2, 2.0, 1.94, 2.06, 1.36, 0.0, -1.35, -1.35, -1.19, -1.19, -0.61, -0.61, -0.63, -1.11, -1.13, -1.84, -1.84, -1.84, -1.84, -8.24, -8.24, -8.87, -8.87, -8.87, -9.17, -9.17, -9.19, -9.19, -9.5, -9.5, -9.5, -9.5, -8.58, -8.87, -8.87, -8.58, -9.5, -9.21, -8.59, -8.23, -8.23, -7.96, -7.96, -7.57, -7.57, -7.16, -7.16, -6.92, -6.27, -6.27, -5.86, -5.86, -5.64, -5.67, -5.67, -5.04, -4.6, -4.63, -3.94, -3.97, -3.49, -3.52, -3.35, -3.37, -2.89, -2.23, -1.63, -1.23, -1.16, -0.55, -0.57, -0.59, -1.13, -1.16, -1.16, -0.61, -0.53, -0.65, 0.0, 0.0, 0.0, 0.0, 0.0, 0.0, 1.26, 2.24, 2.68, 0.89, -0.0, -0.95, -1.86, -2.17, -2.24, -2.91, -2.79, -1.23, 0.0, 3.07, 5.4, 7.9, 7.6, 6.27, 3.53, 0.69, -1.27, -2.51, -3.16, -2.48, -2.0, -1.76, -2.0, -2.23, -2.53, -2.53, -2.84, -2.84, -2.84, -8.24, -8.24, -8.87, -8.87, -8.87, -9.17, -9.17, -9.19, -9.19, -9.19, -9.5, -9.5, -9.19, -8.87, -8.87, -8.58, -8.87, -9.21, -9.21, -8.59, -8.23, -8.23, -8.23, -7.96, -7.57, -7.57, -7.16, -6.92, -6.92, -6.5, -6.27, -5.86, -5.86, -5.64, -5.67, -5.02, -5.04, -4.63, -4.63, -4.63, -4.16, -3.97, -3.32, -3.35, -3.37, -2.89, -2.89, -2.23, -1.73, -1.65, -1.16, -1.19, -0.57, -0.59, -0.61, -0.61, -0.53, -0.53, -0.65, 0.0, 0.0, 0.0, 0.0, 0.0, 0.0, 1.26, 2.24, 0.89, 0.89, -0.4, -1.6, -2.17, -2.68, -2.63, -2.8, -2.15, -1.33, 0.0, 1.54, 6.09, 9.6, 9.88, 7.84, 4.94, 2.83, 0.66, -1.9, -3.39, -3.35, -3.14, -3.22, -3.14, -3.45, -3.07, -3.45, -3.6, -3.6, -3.6, -8.24, -8.24, -8.87, -8.87, -8.87, -9.17, -8.88, -9.19, -9.19, -9.19, -9.19, -9.19, -8.58, -8.56, -8.56, -8.58, -8.87, -9.5, -9.21, -8.59, -8.23, -8.23, -8.23, -7.96, -7.57, -7.57, -7.57, -7.16, -6.92, -6.92, -6.5, -6.27, -6.27, -5.86, -5.64, -5.23, -5.02, -4.6, -4.63, -4.63, -4.63, -3.97, -3.97, -4.0, -3.56, -3.37, -2.89, -2.73, -2.4, -2.29, -1.65, -1.14, -1.07, -1.23, -0.59, -0.53, -0.53, -0.65, -0.65, -0.65, 0.0, 0.0, 0.0, 0.0, 0.0, 0.0, 1.26, 0.45, -0.0, -0.63, -2.12, -2.17, -1.79, -1.79, -1.2, 0.0, 0.0, 0.0, 2.35, 5.59, 8.27, 8.46, 6.47, 4.94, 4.05, 2.66, 0.0, -2.4, -3.07, -3.9, -3.6, -3.39, -3.82, -3.97, -3.97, -3.97, -3.97, -3.97, -8.56, -8.56, -8.56, -8.87, -9.17, -9.17, -8.88, -9.19, -9.19, -9.19, -9.19, -9.19, -8.58, -8.56, -8.56, -8.58, -8.87, -9.19, -9.19, -8.87, -7.96, -7.96, -8.23, -7.96, -7.57, -7.57, -7.57, -7.57, -7.16, -7.16, -6.92, -6.92, -6.5, -6.27, -5.86, -5.64, -5.23, -4.57, -4.6, -4.6, -4.4, -4.16, -3.97, -4.0, -3.8, -3.56, -3.37, -2.89, -2.92, -2.26, -2.29, -1.8, -1.67, -1.07, -0.59, -0.61, -0.53, -0.65, -0.65, -0.54, 0.0, 0.0, 0.0, 0.0, 0.0, 0.0, 0.0, 0.0, 0.0, 0.0, -1.79, -1.2, -0.8, -0.89, 0.0, 0.89, 0.6, 1.16, 3.16, 5.05, 6.08, 5.3, 5.45, 6.48, 5.77, 4.0, 0.66, -1.7, -2.17, -2.24, -2.68, -4.02, -4.02, -4.02, -4.02, -3.53, -3.53, -3.53, -8.24, -8.24, -8.56, -8.87, -9.17, -9.17, -8.88, -9.19, -9.19, -9.19, -9.19, -9.19, -8.58, -8.56, -8.87, -8.58, -9.19, -9.5, -9.19, -8.87, -8.58, -7.96, -8.23, -8.23, -7.57, -7.57, -7.57, -7.57, -7.57, -7.57, -7.16, -6.92, -6.92, -6.27, -6.53, -5.86, -5.64, -5.23, -4.57, -4.57, -4.6, -3.94, -4.16, -3.97, -4.0, -3.56, -3.37, -2.89, -2.92, -2.75, -2.29, -2.14, -2.16, -1.7, -1.11, -0.59, -0.61, -0.53, -0.65, -0.54, 0.0, 0.0, 0.0, 0.0, 0.0, 0.0, 0.0, 0.0, 0.0, -0.0, -0.0, -0.0, -0.0, -0.0, -0.0, 0.45, 0.63, 1.86, 3.45, 3.72, 3.48, 4.6, 7.12, 8.38, 7.02, 4.07, 0.59, -1.34, -0.95, -1.2, -2.63, -3.97, -3.82, -3.82, -3.07, -2.68, -2.68, -2.68, -8.24, -8.24, -8.24, -8.56, -8.87, -9.17, -9.17, -9.19, -9.19, -9.19, -9.19, -9.19, -8.58, -8.87, -8.87, -8.58, -9.19, -9.19, -8.87, -8.58, -8.58, -7.96, -8.23, -8.23, -8.23, -7.96, -7.57, -7.57, -7.57, -7.57, -7.57, -7.16, -6.92, -6.94, -6.53, -6.29, -5.64, -5.89, -5.23, -4.57, -4.38, -4.12, -3.94, -3.97, -4.0, -3.8, -3.37, -3.37, -2.73, -2.92, -2.96, -2.29, -2.32, -2.36, -1.19, -1.11, -1.13, -0.61, -0.61, -0.65, -0.54, 0.0, 0.0, 0.0, -0.57, 0.0, 0.0, 0.0, 0.45, 0.95, 0.95, 0.63, -0.0, -0.0, -0.0, -0.0, 0.89, 1.79, 2.63, 3.07, 2.84, 3.43, 6.68, 7.52, 5.62, 3.27, -1.6, -2.15, -1.24, -0.89, -2.24, -3.32, -3.07, -2.21, -1.88, -1.9, -1.9, -1.9, -8.24, -8.24, -7.93, -8.24, -8.56, -8.87, -9.17, -9.19, -9.19, -9.19, -9.19, -9.19, -8.58, -8.58, -8.58, -8.87, -9.19, -9.19, -8.87, -8.58, -8.58, -7.96, -8.23, -8.23, -8.23, -8.23, -7.96, -7.57, -7.57, -7.57, -7.57, -7.57, -6.92, -6.94, -6.94, -6.29, -6.31, -5.89, -5.67, -5.02, -4.57, -4.6, -4.6, -4.16, -4.0, -3.8, -3.37, -3.37, -2.89, -2.92, -2.75, -2.29, -2.32, -1.7, -1.73, -1.76, -1.11, -1.13, -0.99, -0.61, -0.65, -0.54, -0.71, -0.57, -0.57, -0.63, -0.89, 0.0, -0.0, -0.0, 0.63, 0.89, 0.45, -0.0, -0.0, -0.0, 0.63, 1.2, 1.79, 2.4, 2.79, 3.14, 3.49, 4.29, 3.78, 0.0, -1.16, -2.68, -2.4, -1.79, -2.17, -2.24, -1.9, -1.0, -0.71, -0.57, -0.57, -0.57, -8.24, -8.24, -7.93, -7.93, -7.95, -8.56, -8.87, -8.58, -9.19, -9.19, -9.19, -8.87, -8.58, -8.58, -9.19, -9.19, -9.19, -8.87, -8.58, -8.58, -8.58, -8.58, -8.23, -8.23, -8.23, -8.23, -7.96, -7.96, -7.57, -7.57, -7.57, -7.32, -7.59, -6.94, -6.94, -6.56, -6.31, -6.07, -5.92, -5.26, -5.26, -4.6, -4.6, -4.63, -4.0, -3.8, -3.37, -3.37, -3.4, -2.92, -2.75, -2.77, -2.32, -2.18, -1.73, -1.73, -1.76, -1.11, -1.13, -1.13, -0.61, -0.65, -0.54, -0.71, -1.24, -1.58, -0.89, -0.63, -0.0, -0.57, -0.0, -0.0, 0.63, 0.0, -0.0, -0.0, -0.0, 0.63, 1.34, 1.79, 2.4, 3.07, 2.84, 1.94, 0.0, 0.0, -0.99, -2.24, -2.68, -2.68, -2.63, -2.17, -0.63, -0.0, -0.0, -0.0, -0.0, -0.0, -7.93, -7.93, -7.61, -7.61, -7.61, -7.95, -8.24, -8.56, -8.87, -8.58, -8.58, -8.58, -8.58, -9.19, -9.19, -9.19, -9.19, -8.58, -8.58, -8.58, -8.58, -8.87, -8.23, -8.23, -8.23, -8.23, -8.23, -7.96, -7.96, -7.57, -7.57, -7.59, -7.59, -6.94, -6.96, -6.96, -6.31, -6.33, -5.92, -5.69, -5.26, -5.04, -4.63, -4.42, -4.0, -4.03, -3.81, -3.6, -3.4, -2.75, -2.96, -2.77, -2.32, -2.36, -2.4, -1.73, -1.76, -1.76, -1.11, -1.13, -1.13, -1.16, -1.2, -1.2, -1.49, -1.58, -1.2, -0.89, -0.0, -0.0, -1.24, -1.49, -1.34, -0.6, 0.0, -0.63, -0.0, 0.63, 0.89, 1.34, 1.7, 2.5, 2.23, 0.79, 0.0, 0.0, -0.65, -2.24, -2.68, -3.07, -2.91, -2.17, -0.32, -0.0, 0.6, 1.49, 1.49, 1.49, -7.61, -7.61, -7.61, -7.61, -7.61, -7.61, -7.95, -8.24, -8.24, -8.87, -8.87, -8.58, -9.19, -9.19, -9.19, -9.19, -8.58, -8.58, -8.58, -8.58, -8.58, -8.87, -8.59, -8.23, -8.23, -8.23, -8.23, -8.23, -8.23, -7.96, -7.85, -7.59, -7.59, -6.94, -6.96, -6.96, -6.31, -6.33, -5.92, -5.69, -5.26, -5.04, -4.63, -4.66, -4.44, -4.03, -3.81, -3.4, -3.4, -2.96, -2.77, -2.29, -2.32, -2.36, -2.18, -2.2, -1.94, -1.76, -1.58, -1.8, -1.6, -1.33, -1.16, -1.4, -1.2, -1.9, -2.21, -1.24, 0.0, 0.0, -0.32, -1.7, -2.24, -2.24, -1.79, -0.45, -0.0, 0.0, 0.45, 0.89, 1.34, 1.86, 2.11, 2.28, 2.1, 1.28, 0.0, -2.6, -3.13, -3.07, -2.91, -2.63, -0.63, -0.0, 1.2, 2.17, 2.17, 2.17, -7.61, -7.61, -7.61, -7.61, -7.95, -7.95, -7.95, -8.24, -8.24, -8.58, -8.58, -8.87, -9.19, -9.19, -9.19, -9.17, -8.87, -8.87, -8.58, -8.58, -8.58, -8.87, -8.87, -8.59, -8.23, -8.23, -8.23, -8.23, -8.23, -8.23, -7.85, -7.59, -7.33, -6.94, -6.96, -6.96, -6.31, -6.33, -5.92, -5.69, -5.26, -5.04, -4.63, -4.42, -4.0, -4.03, -3.81, -3.4, -3.2, -2.96, -2.77, -2.32, -2.16, -2.36, -2.18, -2.4, -2.2, -2.22, -1.76, -1.58, -1.8, -1.6, -1.84, -1.61, -1.61, -1.88, -1.88, -1.24, 0.0, 0.45, 0.0, 0.0, -1.79, -2.68, -2.17, -1.7, -1.2, -0.89, 0.0, 0.0, 0.45, 0.63, 1.8, 2.8, 2.82, 1.88, 0.0, -1.79, -2.68, -3.58, -3.53, -2.68, -0.89, 0.0, 0.89, 2.68, 2.68, 2.68, -7.61, -7.61, -7.95, -7.95, -7.95, -7.95, -8.24, -8.24, -8.58, -8.58, -8.87, -9.19, -9.19, -9.19, -9.19, -9.17, -8.87, -8.87, -8.87, -8.58, -8.58, -8.87, -8.87, -8.59, -8.59, -8.23, -8.23, -8.23, -8.23, -8.23, -7.59, -7.59, -7.33, -7.22, -6.96, -6.7, -6.31, -6.33, -5.92, -5.69, -5.04, -5.29, -4.63, -4.42, -4.0, -4.03, -3.81, -3.4, -3.4, -2.96, -2.77, -2.8, -2.36, -2.36, -2.18, -2.4, -2.2, -2.44, -2.22, -2.22, -1.8, -1.8, -1.84, -1.84, -1.84, -1.88, -1.88, -1.24, -0.95, 0.0, 0.0, 0.0, -0.89, -2.17, -1.86, -1.2, -0.89, -1.34, -0.89, 0.0, 0.0, 0.0, 0.54, 1.27, 1.94, 1.35, 0.59, -0.6, -1.79, -3.13, -3.58, -2.68, -1.34, -0.63, 0.63, 2.68, 2.68, 2.68, -7.95, -7.95, -7.95, -7.95, -8.24, -8.24, -8.56, -8.58, -8.87, -9.19, -9.19, -9.19, -9.19, -9.19, -9.48, -9.17, -8.87, -8.87, -8.87, -8.58, -8.58, -8.87, -8.87, -8.87, -8.87, -8.23, -8.23, -8.23, -8.23, -7.96, -7.59, -7.33, -7.6, -6.96, -6.96, -6.31, -6.58, -6.33, -5.92, -5.69, -5.04, -5.29, -4.63, -4.42, -4.0, -4.0, -4.03, -4.05, -3.4, -3.42, -2.77, -2.8, -2.36, -2.36, -2.18, -2.84, -2.4, -2.44, -2.44, -2.22, -2.48, -2.23, -2.23, -2.51, -2.23, -1.84, -1.88, -1.49, -0.95, 0.0, 0.0, 0.0, -1.2, -1.9, -1.58, -1.2, -0.45, -0.89, -0.89, -0.63, -0.89, -0.8, -0.57, 0.0, 0.63, 0.67, 0.61, 0.0, -0.89, -1.86, -2.4, -2.4, -1.79, -0.99, 0.6, 2.6, 2.6, 2.6, -7.95, -7.95, -8.24, -8.24, -8.24, -8.87, -8.58, -8.87, -9.19, -9.19, -9.19, -9.19, -8.87, -8.58, -8.87, -9.17, -8.87, -8.87, -8.87, -8.87, -8.58, -8.58, -8.87, -8.87, -8.58, -8.24, -8.24, -7.96, -7.96, -7.96, -7.59, -7.6, -7.33, -6.96, -6.7, -6.58, -6.33, -5.92, -5.69, -5.69, -5.04, -5.06, -4.63, -4.42, -4.0, -4.0, -4.03, -3.81, -3.83, -3.64, -3.42, -2.8, -3.04, -2.82, -2.61, -2.84, -2.84, -2.86, -2.86, -2.6, -2.48, -2.48, -2.23, -2.51, -2.23, -2.23, -1.88, -1.61, -1.26, -0.89, -0.89, -0.89, -1.2, -1.58, -2.15, -2.17, -1.79, -1.34, -1.2, -1.2, -1.2, -1.79, -1.86, -1.16, 0.0, 0.0, 0.0, 0.0, -0.57, -1.34, -1.7, -2.17, -2.17, -0.99, 1.0, 2.91, 2.91, 2.91, -8.56, -8.56, -8.24, -8.24, -8.24, -8.87, -8.58, -8.87, -9.19, -9.19, -9.19, -9.19, -8.87, -8.58, -8.87, -8.87, -8.87, -8.87, -8.87, -8.87, -8.87, -8.58, -8.58, -8.58, -8.58, -8.24, -8.24, -8.24, -8.24, -8.24, -7.6, -7.6, -6.96, -6.7, -6.58, -6.33, -5.92, -5.69, -5.69, -5.04, -5.04, -5.06, -4.63, -4.42, -4.0, -4.0, -4.03, -4.03, -4.05, -3.4, -3.42, -3.0, -2.8, -2.82, -2.82, -2.84, -2.84, -2.86, -2.86, -2.86, -2.86, -2.86, -2.86, -2.84, -2.51, -2.23, -2.21, -1.61, -1.24, -1.6, -1.79, -1.34, -0.63, -1.2, -1.7, -2.6, -2.6, -1.2, -0.63, -1.2, -1.6, -1.79, -2.4, -1.84, -1.35, -0.71, 0.0, 0.0, 0.0, -0.65, -1.26, -1.49, -1.24, 0.0, 1.84, 2.53, 2.53, 2.53, -8.56, -8.56, -8.56, -8.56, -8.56, -8.87, -8.87, -8.58, -9.19, -9.19, -9.19, -9.19, -9.19, -8.58, -8.87, -8.87, -8.87, -8.87, -8.87, -8.87, -8.87, -8.58, -8.58, -8.58, -8.24, -8.24, -8.24, -8.24, -7.96, -7.6, -7.6, -7.33, -6.96, -6.97, -6.33, -6.33, -5.69, -5.69, -5.45, -5.04, -5.29, -4.63, -4.63, -4.42, -4.0, -4.0, -3.8, -4.03, -4.03, -4.05, -3.64, -3.45, -3.45, -3.47, -2.82, -3.08, -2.84, -3.12, -2.86, -2.86, -2.86, -3.15, -2.86, -3.16, -2.84, -2.23, -2.53, -1.88, -1.9, -1.58, -1.6, -0.89, -0.45, 0.0, -0.45, -1.7, -1.86, -0.0, -0.0, -1.2, -1.7, -2.24, -2.91, -2.51, -1.94, -0.76, 0.0, 0.0, 0.0, 0.0, -0.59, -0.61, 0.0, 1.13, 2.23, 3.16, 3.16, 3.16, -8.56, -8.56, -8.87, -8.87, -8.87, -8.87, -8.87, -8.87, -8.58, -9.19, -9.19, -9.19, -9.19, -9.19, -8.87, -8.87, -8.87, -8.87, -8.87, -8.87, -8.87, -8.87, -8.87, -8.58, -8.24, -8.24, -7.96, -7.96, -7.6, -7.6, -7.33, -6.96, -6.7, -6.97, -6.33, -5.92, -5.69, -5.69, -5.04, -5.29, -5.29, -4.63, -4.63, -4.42, -4.2, -4.0, -4.0, -4.03, -4.03, -3.81, -4.08, -3.42, -3.45, -3.47, -3.47, -3.49, -3.22, -3.49, -3.49, -3.2, -3.2, -3.48, -2.86, -3.16, -2.84, -2.84, -2.53, -2.21, -1.9, -1.58, -1.86, -1.7, -0.95, 0.0, 0.0, -0.6, -1.26, -0.0, -0.0, -1.2, -2.24, -2.68, -3.32, -3.14, -2.66, -1.4, 0.0, 0.0, 0.0, 0.67, 0.7, 0.57, 1.11, 1.76, 2.48, 2.79, 2.79, 2.79, -8.56, -8.56, -8.87, -8.87, -8.87, -8.87, -8.87, -8.87, -8.58, -9.19, -9.19, -9.19, -9.19, -9.19, -8.87, -8.87, -8.87, -8.87, -8.87, -8.87, -8.87, -8.87, -8.87, -8.58, -8.24, -8.24, -7.96, -7.96, -7.6, -7.6, -7.33, -6.96, -6.7, -6.97, -6.33, -5.92, -5.69, -5.69, -5.04, -5.29, -5.29, -4.63, -4.63, -4.42, -4.2, -4.0, -4.0, -4.03, -4.03, -3.81, -4.08, -3.42, -3.45, -3.47, -3.47, -3.49, -3.22, -3.49, -3.49, -3.2, -3.2, -3.48, -2.86, -3.16, -2.84, -2.84, -2.53, -2.21, -1.9, -1.58, -1.86, -1.7, -0.95, 0.0, 0.0, -0.6, -0.6, -0.0, -0.0, -1.2, -2.24, -3.13, -3.39, -3.49, -2.98, -2.26, -0.69, 0.0, 0.71, 1.55, 2.26, 2.12, 2.04, 2.11, 2.2, 2.0, 2.0, 2.0]}]